Wetterdaten: Sonntag, 07.04.2013
Datum Zeit Temp. Aussen +5cm Feuchte Auss Luftdruck Regen Sonnenschein Regendauer UV Solar Windben
07.04.2013 00:00 4,7 C 2,9 C 69 % 1022,4 hPa 0,0 l/m 0 min 0 min 0,0 UV-I 0 W/m 0,0 km/h (0 Bft)
07.04.2013 00:02 4,7 C 2,9 C 69 % 1022,4 hPa 0,0 l/m 0 min 0 min 0,0 UV-I 0 W/m 0,0 km/h (0 Bft)
07.04.2013 00:06 4,7 C 2,9 C 69 % 1022,3 hPa 0,0 l/m 0 min 0 min 0,0 UV-I 0 W/m 0,0 km/h (0 Bft)
07.04.2013 00:08 4,6 C 2,9 C 70 % 1022,3 hPa 0,0 l/m 0 min 0 min 0,0 UV-I 0 W/m 0,0 km/h (0 Bft)
07.04.2013 00:10 4,6 C 2,9 C 70 % 1022,3 hPa 0,0 l/m 0 min 0 min 0,0 UV-I 0 W/m 0,0 km/h (0 Bft)
07.04.2013 00:12 4,6 C 2,9 C 70 % 1022,4 hPa 0,0 l/m 0 min 0 min 0,0 UV-I 0 W/m 0,0 km/h (0 Bft)
07.04.2013 00:14 4,6 C 2,9 C 70 % 1022,5 hPa 0,0 l/m 0 min 0 min 0,0 UV-I 0 W/m 0,0 km/h (0 Bft)
07.04.2013 00:16 4,6 C 2,9 C 70 % 1022,5 hPa 0,0 l/m 0 min 0 min 0,0 UV-I 0 W/m 0,0 km/h (0 Bft)
07.04.2013 00:18 4,5 C 2,9 C 70 % 1022,5 hPa 0,0 l/m 0 min 0 min 0,0 UV-I 0 W/m 0,0 km/h (0 Bft)
07.04.2013 00:20 4,5 C 2,9 C 70 % 1022,5 hPa 0,0 l/m 0 min 0 min 0,0 UV-I 0 W/m 0,0 km/h (0 Bft)
07.04.2013 00:22 4,5 C 2,9 C 70 % 1022,5 hPa 0,0 l/m 0 min 0 min 0,0 UV-I 0 W/m 0,0 km/h (0 Bft)
07.04.2013 00:24 4,4 C 2,9 C 70 % 1022,5 hPa 0,0 l/m 0 min 0 min 0,0 UV-I 0 W/m 0,0 km/h (0 Bft)
07.04.2013 00:26 4,4 C 2,9 C 70 % 1022,5 hPa 0,0 l/m 0 min 0 min 0,0 UV-I 0 W/m 0,0 km/h (0 Bft)
07.04.2013 00:28 4,4 C 2,9 C 70 % 1022,5 hPa 0,0 l/m 0 min 0 min 0,0 UV-I 0 W/m 0,0 km/h (0 Bft)
07.04.2013 00:30 4,4 C 2,9 C 70 % 1022,5 hPa 0,0 l/m 0 min 0 min 0,0 UV-I 0 W/m 2,6 km/h (1 Bft)
07.04.2013 00:32 4,4 C 2,9 C 70 % 1022,5 hPa 0,0 l/m 0 min 0 min 0,0 UV-I 0 W/m 0,0 km/h (0 Bft)
07.04.2013 00:34 4,4 C 2,9 C 70 % 1022,5 hPa 0,0 l/m 0 min 0 min 0,0 UV-I 0 W/m 0,0 km/h (0 Bft)
07.04.2013 00:36 4,4 C 2,9 C 69 % 1022,6 hPa 0,0 l/m 0 min 0 min 0,0 UV-I 0 W/m 2,6 km/h (1 Bft)
07.04.2013 00:38 4,3 C 3,4 C 69 % 1022,5 hPa 0,0 l/m 0 min 0 min 0,0 UV-I 0 W/m 7,7 km/h (2 Bft)
07.04.2013 00:40 4,4 C 3,4 C 68 % 1022,6 hPa 0,0 l/m 0 min 0 min 0,0 UV-I 0 W/m 0,0 km/h (0 Bft)
07.04.2013 00:42 4,4 C 3,4 C 68 % 1022,6 hPa 0,0 l/m 0 min 0 min 0,0 UV-I 0 W/m 2,6 km/h (1 Bft)
07.04.2013 00:44 4,4 C 3,4 C 68 % 1022,6 hPa 0,0 l/m 0 min 0 min 0,0 UV-I 0 W/m 10,3 km/h (2 Bft)
07.04.2013 00:46 4,4 C 3,4 C 68 % 1022,6 hPa 0,0 l/m 0 min 0 min 0,0 UV-I 0 W/m 10,3 km/h (2 Bft)
07.04.2013 00:48 4,4 C 3,4 C 68 % 1022,6 hPa 0,0 l/m 0 min 0 min 0,0 UV-I 0 W/m 7,7 km/h (2 Bft)
07.04.2013 00:50 4,5 C 3,4 C 67 % 1022,6 hPa 0,0 l/m 0 min 0 min 0,0 UV-I 0 W/m 7,7 km/h (2 Bft)
07.04.2013 00:52 4,5 C 3,4 C 67 % 1022,6 hPa 0,0 l/m 0 min 0 min 0,0 UV-I 0 W/m 5,1 km/h (1 Bft)
07.04.2013 00:54 4,6 C 3,4 C 67 % 1022,6 hPa 0,0 l/m 0 min 0 min 0,0 UV-I 0 W/m 7,7 km/h (2 Bft)
07.04.2013 00:56 4,6 C 3,4 C 67 % 1022,6 hPa 0,0 l/m 0 min 0 min 0,0 UV-I 0 W/m 10,3 km/h (2 Bft)
07.04.2013 00:58 4,6 C 3,4 C 67 % 1022,6 hPa 0,0 l/m 0 min 0 min 0,0 UV-I 0 W/m 2,6 km/h (1 Bft)
07.04.2013 01:00 4,7 C 3,4 C 67 % 1022,6 hPa 0,0 l/m 0 min 0 min 0,0 UV-I 0 W/m 7,7 km/h (2 Bft)
07.04.2013 01:02 4,7 C 3,4 C 67 % 1022,6 hPa 0,0 l/m 0 min 0 min 0,0 UV-I 0 W/m 5,1 km/h (1 Bft)
07.04.2013 01:04 4,7 C 3,4 C 67 % 1022,6 hPa 0,0 l/m 0 min 0 min 0,0 UV-I 0 W/m 7,7 km/h (2 Bft)
07.04.2013 01:06 4,7 C 3,4 C 67 % 1022,6 hPa 0,0 l/m 0 min 0 min 0,0 UV-I 0 W/m 7,7 km/h (2 Bft)
07.04.2013 01:08 4,7 C 3,4 C 66 % 1022,6 hPa 0,0 l/m 0 min 0 min 0,0 UV-I 0 W/m 7,7 km/h (2 Bft)
07.04.2013 01:10 4,7 C 3,4 C 66 % 1022,7 hPa 0,0 l/m 0 min 0 min 0,0 UV-I 0 W/m 5,1 km/h (1 Bft)
07.04.2013 01:12 4,7 C 3,4 C 66 % 1022,6 hPa 0,0 l/m 0 min 0 min 0,0 UV-I 0 W/m 7,7 km/h (2 Bft)
07.04.2013 01:14 4,8 C 3,4 C 66 % 1022,6 hPa 0,0 l/m 0 min 0 min 0,0 UV-I 0 W/m 7,7 km/h (2 Bft)
07.04.2013 01:16 4,8 C 3,4 C 67 % 1022,7 hPa 0,0 l/m 0 min 0 min 0,0 UV-I 0 W/m 7,7 km/h (2 Bft)
07.04.2013 01:18 4,8 C 3,4 C 67 % 1022,7 hPa 0,0 l/m 0 min 0 min 0,0 UV-I 0 W/m 10,3 km/h (2 Bft)
07.04.2013 01:20 4,8 C 3,4 C 67 % 1022,6 hPa 0,0 l/m 0 min 0 min 0,0 UV-I 0 W/m 7,7 km/h (2 Bft)
07.04.2013 01:22 4,8 C 3,4 C 67 % 1022,7 hPa 0,0 l/m 0 min 0 min 0,0 UV-I 0 W/m 10,3 km/h (2 Bft)
07.04.2013 01:24 4,8 C 3,4 C 67 % 1022,6 hPa 0,0 l/m 0 min 0 min 0,0 UV-I 0 W/m 5,1 km/h (1 Bft)
07.04.2013 01:26 4,8 C 3,4 C 67 % 1022,7 hPa 0,0 l/m 0 min 0 min 0,0 UV-I 0 W/m 10,3 km/h (2 Bft)
07.04.2013 01:28 4,8 C 3,4 C 67 % 1022,7 hPa 0,0 l/m 0 min 0 min 0,0 UV-I 0 W/m 5,1 km/h (1 Bft)
07.04.2013 01:30 4,7 C 3,4 C 67 % 1022,7 hPa 0,0 l/m 0 min 0 min 0,0 UV-I 0 W/m 5,1 km/h (1 Bft)
07.04.2013 01:32 4,7 C 3,4 C 68 % 1022,7 hPa 0,0 l/m 0 min 0 min 0,0 UV-I 0 W/m 7,7 km/h (2 Bft)
07.04.2013 01:34 4,7 C 3,4 C 68 % 1022,7 hPa 0,0 l/m 0 min 0 min 0,0 UV-I 0 W/m 7,7 km/h (2 Bft)
07.04.2013 01:36 4,7 C 3,4 C 68 % 1022,6 hPa 0,0 l/m 0 min 0 min 0,0 UV-I 0 W/m 10,3 km/h (2 Bft)
07.04.2013 01:38 4,7 C 3,4 C 68 % 1022,6 hPa 0,0 l/m 0 min 0 min 0,0 UV-I 0 W/m 5,1 km/h (1 Bft)
07.04.2013 01:40 4,7 C 3,4 C 68 % 1022,6 hPa 0,0 l/m 0 min 0 min 0,0 UV-I 0 W/m 5,1 km/h (1 Bft)
07.04.2013 01:42 4,7 C 3,4 C 68 % 1022,7 hPa 0,0 l/m 0 min 0 min 0,0 UV-I 0 W/m 10,3 km/h (2 Bft)
07.04.2013 01:44 4,7 C 3,4 C 68 % 1022,7 hPa 0,0 l/m 0 min 0 min 0,0 UV-I 0 W/m 5,1 km/h (1 Bft)
07.04.2013 01:46 4,7 C 3,4 C 68 % 1022,7 hPa 0,0 l/m 0 min 0 min 0,0 UV-I 0 W/m 7,7 km/h (2 Bft)
07.04.2013 01:48 4,6 C 3,4 C 68 % 1022,7 hPa 0,0 l/m 0 min 0 min 0,0 UV-I 0 W/m 7,7 km/h (2 Bft)
07.04.2013 01:50 4,6 C 3,4 C 68 % 1022,7 hPa 0,0 l/m 0 min 0 min 0,0 UV-I 0 W/m 5,1 km/h (1 Bft)
07.04.2013 01:52 4,6 C 3,4 C 69 % 1022,6 hPa 0,0 l/m 0 min 0 min 0,0 UV-I 0 W/m 5,1 km/h (1 Bft)
07.04.2013 01:54 4,6 C 3,4 C 68 % 1022,7 hPa 0,0 l/m 0 min 0 min 0,0 UV-I 0 W/m 5,1 km/h (1 Bft)
07.04.2013 01:56 4,6 C 3,4 C 68 % 1022,6 hPa 0,0 l/m 0 min 0 min 0,0 UV-I 0 W/m 0,0 km/h (0 Bft)
07.04.2013 01:58 4,6 C 3,4 C 68 % 1022,7 hPa 0,0 l/m 0 min 0 min 0,0 UV-I 0 W/m 0,0 km/h (0 Bft)
07.04.2013 02:00 4,5 C 3,4 C 68 % 1022,7 hPa 0,0 l/m 0 min 0 min 0,0 UV-I 0 W/m 0,0 km/h (0 Bft)
07.04.2013 02:02 4,5 C 3,4 C 68 % 1022,7 hPa 0,0 l/m 0 min 0 min 0,0 UV-I 0 W/m 2,6 km/h (1 Bft)
07.04.2013 02:04 4,5 C 3,4 C 68 % 1022,7 hPa 0,0 l/m 0 min 0 min 0,0 UV-I 0 W/m 5,1 km/h (1 Bft)
07.04.2013 02:06 4,5 C 3,4 C 68 % 1022,7 hPa 0,0 l/m 0 min 0 min 0,0 UV-I 0 W/m 7,7 km/h (2 Bft)
07.04.2013 02:08 4,4 C 3,4 C 69 % 1022,7 hPa 0,0 l/m 0 min 0 min 0,0 UV-I 0 W/m 10,3 km/h (2 Bft)
07.04.2013 02:10 4,4 C 3,4 C 69 % 1022,7 hPa 0,0 l/m 0 min 0 min 0,0 UV-I 0 W/m 7,7 km/h (2 Bft)
07.04.2013 02:12 4,4 C 2,9 C 69 % 1022,8 hPa 0,0 l/m 0 min 0 min 0,0 UV-I 0 W/m 0,0 km/h (0 Bft)
07.04.2013 02:14 4,4 C 2,9 C 69 % 1022,7 hPa 0,0 l/m 0 min 0 min 0,0 UV-I 0 W/m 5,1 km/h (1 Bft)
07.04.2013 02:16 4,4 C 2,9 C 69 % 1022,7 hPa 0,0 l/m 0 min 0 min 0,0 UV-I 0 W/m 7,7 km/h (2 Bft)
07.04.2013 02:18 4,3 C 2,9 C 69 % 1022,7 hPa 0,0 l/m 0 min 0 min 0,0 UV-I 0 W/m 5,1 km/h (1 Bft)
07.04.2013 02:20 4,3 C 2,9 C 70 % 1022,8 hPa 0,0 l/m 0 min 0 min 0,0 UV-I 0 W/m 7,7 km/h (2 Bft)
07.04.2013 02:22 4,3 C 2,9 C 70 % 1022,8 hPa 0,0 l/m 0 min 0 min 0,0 UV-I 0 W/m 10,3 km/h (2 Bft)
07.04.2013 02:24 4,3 C 2,9 C 70 % 1022,9 hPa 0,0 l/m 0 min 0 min 0,0 UV-I 0 W/m 10,3 km/h (2 Bft)
07.04.2013 02:26 4,3 C 2,9 C 70 % 1022,9 hPa 0,0 l/m 0 min 0 min 0,0 UV-I 0 W/m 7,7 km/h (2 Bft)
07.04.2013 02:28 4,3 C 2,9 C 70 % 1022,9 hPa 0,0 l/m 0 min 0 min 0,0 UV-I 0 W/m 7,7 km/h (2 Bft)
07.04.2013 02:30 4,2 C 2,9 C 70 % 1022,9 hPa 0,0 l/m 0 min 0 min 0,0 UV-I 0 W/m 7,7 km/h (2 Bft)
07.04.2013 02:32 4,2 C 2,9 C 71 % 1022,9 hPa 0,0 l/m 0 min 0 min 0,0 UV-I 0 W/m 7,7 km/h (2 Bft)
07.04.2013 02:34 4,2 C 2,9 C 71 % 1022,8 hPa 0,0 l/m 0 min 0 min 0,0 UV-I 0 W/m 7,7 km/h (2 Bft)
07.04.2013 02:36 4,1 C 2,9 C 71 % 1022,8 hPa 0,0 l/m 0 min 0 min 0,0 UV-I 0 W/m 7,7 km/h (2 Bft)
07.04.2013 02:38 4,1 C 2,9 C 71 % 1022,9 hPa 0,0 l/m 0 min 0 min 0,0 UV-I 0 W/m 7,7 km/h (2 Bft)
07.04.2013 02:40 4,1 C 2,9 C 71 % 1022,9 hPa 0,0 l/m 0 min 0 min 0,0 UV-I 0 W/m 10,3 km/h (2 Bft)
07.04.2013 02:42 4,1 C 2,9 C 71 % 1022,9 hPa 0,0 l/m 0 min 0 min 0,0 UV-I 0 W/m 7,7 km/h (2 Bft)
07.04.2013 02:44 4,1 C 2,9 C 72 % 1022,9 hPa 0,0 l/m 0 min 0 min 0,0 UV-I 0 W/m 7,7 km/h (2 Bft)
07.04.2013 02:46 4,1 C 2,9 C 71 % 1022,9 hPa 0,0 l/m 0 min 0 min 0,0 UV-I 0 W/m 7,7 km/h (2 Bft)
07.04.2013 02:48 4,0 C 2,9 C 72 % 1022,9 hPa 0,0 l/m 0 min 0 min 0,0 UV-I 0 W/m 7,7 km/h (2 Bft)
07.04.2013 02:50 4,0 C 2,9 C 72 % 1022,9 hPa 0,0 l/m 0 min 0 min 0,0 UV-I 0 W/m 0,0 km/h (0 Bft)
07.04.2013 02:52 3,9 C 2,9 C 72 % 1022,9 hPa 0,0 l/m 0 min 0 min 0,0 UV-I 0 W/m 7,7 km/h (2 Bft)
07.04.2013 02:54 3,9 C 2,9 C 72 % 1022,9 hPa 0,0 l/m 0 min 0 min 0,0 UV-I 0 W/m 5,1 km/h (1 Bft)
07.04.2013 02:56 3,9 C 2,9 C 72 % 1022,9 hPa 0,0 l/m 0 min 0 min 0,0 UV-I 0 W/m 7,7 km/h (2 Bft)
07.04.2013 02:58 3,8 C 2,3 C 72 % 1022,9 hPa 0,0 l/m 0 min 0 min 0,0 UV-I 0 W/m 0,0 km/h (0 Bft)
07.04.2013 03:00 3,8 C 2,3 C 72 % 1022,9 hPa 0,0 l/m 0 min 0 min 0,0 UV-I 0 W/m 0,0 km/h (0 Bft)
07.04.2013 03:02 3,8 C 2,3 C 73 % 1022,9 hPa 0,0 l/m 0 min 0 min 0,0 UV-I 0 W/m 0,0 km/h (0 Bft)
07.04.2013 03:06 3,8 C 2,3 C 73 % 1022,9 hPa 0,0 l/m 0 min 0 min 0,0 UV-I 0 W/m 7,7 km/h (2 Bft)
07.04.2013 03:08 3,7 C 2,3 C 73 % 1022,9 hPa 0,0 l/m 0 min 0 min 0,0 UV-I 0 W/m 0,0 km/h (0 Bft)
07.04.2013 03:10 3,7 C 2,3 C 73 % 1022,9 hPa 0,0 l/m 0 min 0 min 0,0 UV-I 0 W/m 2,6 km/h (1 Bft)
07.04.2013 03:12 3,7 C 2,3 C 74 % 1022,9 hPa 0,0 l/m 0 min 0 min 0,0 UV-I 0 W/m 2,6 km/h (1 Bft)
07.04.2013 03:14 3,6 C 2,3 C 74 % 1022,8 hPa 0,0 l/m 0 min 0 min 0,0 UV-I 0 W/m 0,0 km/h (0 Bft)
07.04.2013 03:16 3,6 C 2,3 C 74 % 1022,8 hPa 0,0 l/m 0 min 0 min 0,0 UV-I 0 W/m 0,0 km/h (0 Bft)
07.04.2013 03:18 3,6 C 2,3 C 74 % 1022,8 hPa 0,0 l/m 0 min 0 min 0,0 UV-I 0 W/m 7,7 km/h (2 Bft)
07.04.2013 03:20 3,5 C 2,3 C 74 % 1022,8 hPa 0,0 l/m 0 min 0 min 0,0 UV-I 0 W/m 5,1 km/h (1 Bft)
07.04.2013 03:22 3,5 C 2,3 C 74 % 1022,8 hPa 0,0 l/m 0 min 0 min 0,0 UV-I 0 W/m 0,0 km/h (0 Bft)
07.04.2013 03:24 3,4 C 2,3 C 74 % 1022,8 hPa 0,0 l/m 0 min 0 min 0,0 UV-I 0 W/m 0,0 km/h (0 Bft)
07.04.2013 03:26 3,4 C 2,3 C 74 % 1022,8 hPa 0,0 l/m 0 min 0 min 0,0 UV-I 0 W/m 0,0 km/h (0 Bft)
07.04.2013 03:28 3,4 C 1,8 C 74 % 1022,8 hPa 0,0 l/m 0 min 0 min 0,0 UV-I 0 W/m 0,0 km/h (0 Bft)
07.04.2013 03:30 3,4 C 1,8 C 74 % 1022,8 hPa 0,0 l/m 0 min 0 min 0,0 UV-I 0 W/m 0,0 km/h (0 Bft)
07.04.2013 03:32 3,3 C 1,8 C 75 % 1022,8 hPa 0,0 l/m 0 min 0 min 0,0 UV-I 0 W/m 0,0 km/h (0 Bft)
07.04.2013 03:34 3,3 C 1,8 C 75 % 1022,8 hPa 0,0 l/m 0 min 0 min 0,0 UV-I 0 W/m 2,6 km/h (1 Bft)
07.04.2013 03:36 3,3 C 1,8 C 75 % 1022,7 hPa 0,0 l/m 0 min 0 min 0,0 UV-I 0 W/m 2,6 km/h (1 Bft)
07.04.2013 03:38 3,2 C 1,8 C 75 % 1022,7 hPa 0,0 l/m 0 min 0 min 0,0 UV-I 0 W/m 2,6 km/h (1 Bft)
07.04.2013 03:40 3,2 C 1,8 C 75 % 1022,7 hPa 0,0 l/m 0 min 0 min 0,0 UV-I 0 W/m 0,0 km/h (0 Bft)
07.04.2013 03:42 3,2 C 1,8 C 75 % 1022,6 hPa 0,0 l/m 0 min 0 min 0,0 UV-I 0 W/m 0,0 km/h (0 Bft)
07.04.2013 03:44 3,1 C 1,8 C 75 % 1022,7 hPa 0,0 l/m 0 min 0 min 0,0 UV-I 0 W/m 2,6 km/h (1 Bft)
07.04.2013 03:46 3,1 C 1,2 C 76 % 1022,8 hPa 0,0 l/m 0 min 0 min 0,0 UV-I 0 W/m 2,6 km/h (1 Bft)
07.04.2013 03:48 3,1 C 1,2 C 76 % 1022,8 hPa 0,0 l/m 0 min 0 min 0,0 UV-I 0 W/m 0,0 km/h (0 Bft)
07.04.2013 03:50 3,1 C 1,2 C 76 % 1022,7 hPa 0,0 l/m 0 min 0 min 0,0 UV-I 0 W/m 0,0 km/h (0 Bft)
07.04.2013 03:52 3,0 C 1,2 C 76 % 1022,8 hPa 0,0 l/m 0 min 0 min 0,0 UV-I 0 W/m 0,0 km/h (0 Bft)
07.04.2013 03:54 2,9 C 1,2 C 76 % 1022,7 hPa 0,0 l/m 0 min 0 min 0,0 UV-I 0 W/m 0,0 km/h (0 Bft)
07.04.2013 03:56 2,9 C 1,2 C 76 % 1022,7 hPa 0,0 l/m 0 min 0 min 0,0 UV-I 0 W/m 0,0 km/h (0 Bft)
07.04.2013 03:58 2,9 C 1,2 C 76 % 1022,7 hPa 0,0 l/m 0 min 0 min 0,0 UV-I 0 W/m 0,0 km/h (0 Bft)
07.04.2013 04:00 2,8 C 0,7 C 76 % 1022,6 hPa 0,0 l/m 0 min 0 min 0,0 UV-I 0 W/m 0,0 km/h (0 Bft)
07.04.2013 04:02 2,8 C 0,7 C 76 % 1022,7 hPa 0,0 l/m 0 min 0 min 0,0 UV-I 0 W/m 0,0 km/h (0 Bft)
07.04.2013 04:04 2,8 C 0,7 C 76 % 1022,6 hPa 0,0 l/m 0 min 0 min 0,0 UV-I 0 W/m 0,0 km/h (0 Bft)
07.04.2013 04:06 2,7 C 0,7 C 76 % 1022,6 hPa 0,0 l/m 0 min 0 min 0,0 UV-I 0 W/m 0,0 km/h (0 Bft)
07.04.2013 04:08 2,7 C 0,7 C 76 % 1022,6 hPa 0,0 l/m 0 min 0 min 0,0 UV-I 0 W/m 0,0 km/h (0 Bft)
07.04.2013 04:10 2,7 C 0,7 C 76 % 1022,7 hPa 0,0 l/m 0 min 0 min 0,0 UV-I 0 W/m 0,0 km/h (0 Bft)
07.04.2013 04:12 2,6 C -0,4 C 76 % 1022,7 hPa 0,0 l/m 0 min 0 min 0,0 UV-I 0 W/m 0,0 km/h (0 Bft)
07.04.2013 04:14 2,6 C -0,4 C 76 % 1022,7 hPa 0,0 l/m 0 min 0 min 0,0 UV-I 0 W/m 0,0 km/h (0 Bft)
07.04.2013 04:16 2,5 C -0,4 C 76 % 1022,7 hPa 0,0 l/m 0 min 0 min 0,0 UV-I 0 W/m 0,0 km/h (0 Bft)
07.04.2013 04:18 2,4 C -0,4 C 76 % 1022,8 hPa 0,0 l/m 0 min 0 min 0,0 UV-I 0 W/m 0,0 km/h (0 Bft)
07.04.2013 04:20 2,4 C -0,4 C 77 % 1022,7 hPa 0,0 l/m 0 min 0 min 0,0 UV-I 0 W/m 0,0 km/h (0 Bft)
07.04.2013 04:22 2,3 C -0,4 C 77 % 1022,7 hPa 0,0 l/m 0 min 0 min 0,0 UV-I 0 W/m 0,0 km/h (0 Bft)
07.04.2013 04:24 2,3 C -0,4 C 77 % 1022,7 hPa 0,0 l/m 0 min 0 min 0,0 UV-I 0 W/m 0,0 km/h (0 Bft)
07.04.2013 04:26 2,2 C -0,4 C 77 % 1022,7 hPa 0,0 l/m 0 min 0 min 0,0 UV-I 0 W/m 0,0 km/h (0 Bft)
07.04.2013 04:28 2,2 C -0,4 C 77 % 1022,6 hPa 0,0 l/m 0 min 0 min 0,0 UV-I 0 W/m 0,0 km/h (0 Bft)
07.04.2013 04:30 2,2 C -1,0 C 77 % 1022,7 hPa 0,0 l/m 0 min 0 min 0,0 UV-I 0 W/m 0,0 km/h (0 Bft)
07.04.2013 04:32 2,1 C -1,0 C 77 % 1022,6 hPa 0,0 l/m 0 min 0 min 0,0 UV-I 0 W/m 0,0 km/h (0 Bft)
07.04.2013 04:34 2,1 C -1,0 C 77 % 1022,6 hPa 0,0 l/m 0 min 0 min 0,0 UV-I 0 W/m 0,0 km/h (0 Bft)
07.04.2013 04:36 2,0 C -1,0 C 77 % 1022,5 hPa 0,0 l/m 0 min 0 min 0,0 UV-I 0 W/m 0,0 km/h (0 Bft)
07.04.2013 04:38 1,9 C -1,0 C 78 % 1022,5 hPa 0,0 l/m 0 min 0 min 0,0 UV-I 0 W/m 0,0 km/h (0 Bft)
07.04.2013 04:40 1,9 C -1,0 C 78 % 1022,5 hPa 0,0 l/m 0 min 0 min 0,0 UV-I 0 W/m 0,0 km/h (0 Bft)
07.04.2013 04:42 1,8 C -1,0 C 78 % 1022,5 hPa 0,0 l/m 0 min 0 min 0,0 UV-I 0 W/m 0,0 km/h (0 Bft)
07.04.2013 04:44 1,8 C -1,0 C 78 % 1022,5 hPa 0,0 l/m 0 min 0 min 0,0 UV-I 0 W/m 0,0 km/h (0 Bft)
07.04.2013 04:46 1,7 C -1,6 C 78 % 1022,5 hPa 0,0 l/m 0 min 0 min 0,0 UV-I 0 W/m 0,0 km/h (0 Bft)
07.04.2013 04:48 1,7 C -1,6 C 78 % 1022,5 hPa 0,0 l/m 0 min 0 min 0,0 UV-I 0 W/m 0,0 km/h (0 Bft)
07.04.2013 04:50 1,6 C -1,6 C 78 % 1022,6 hPa 0,0 l/m 0 min 0 min 0,0 UV-I 0 W/m 0,0 km/h (0 Bft)
07.04.2013 04:52 1,5 C -1,6 C 79 % 1022,6 hPa 0,0 l/m 0 min 0 min 0,0 UV-I 0 W/m 0,0 km/h (0 Bft)
07.04.2013 04:54 1,4 C -2,1 C 79 % 1022,5 hPa 0,0 l/m 0 min 0 min 0,0 UV-I 0 W/m 0,0 km/h (0 Bft)
07.04.2013 04:56 1,3 C -2,1 C 79 % 1022,5 hPa 0,0 l/m 0 min 0 min 0,0 UV-I 0 W/m 0,0 km/h (0 Bft)
07.04.2013 04:58 1,3 C -2,1 C 79 % 1022,5 hPa 0,0 l/m 0 min 0 min 0,0 UV-I 0 W/m 0,0 km/h (0 Bft)
07.04.2013 05:00 1,3 C -2,1 C 79 % 1022,5 hPa 0,0 l/m 0 min 0 min 0,0 UV-I 0 W/m 0,0 km/h (0 Bft)
07.04.2013 05:02 1,3 C -2,1 C 79 % 1022,5 hPa 0,0 l/m 0 min 0 min 0,0 UV-I 0 W/m 0,0 km/h (0 Bft)
07.04.2013 05:04 1,2 C -2,1 C 79 % 1022,5 hPa 0,0 l/m 0 min 0 min 0,0 UV-I 0 W/m 0,0 km/h (0 Bft)
07.04.2013 05:06 1,1 C -2,1 C 80 % 1022,5 hPa 0,0 l/m 0 min 0 min 0,0 UV-I 0 W/m 0,0 km/h (0 Bft)
07.04.2013 05:08 1,1 C -2,1 C 80 % 1022,5 hPa 0,0 l/m 0 min 0 min 0,0 UV-I 0 W/m 0,0 km/h (0 Bft)
07.04.2013 05:10 1,0 C -2,1 C 80 % 1022,5 hPa 0,0 l/m 0 min 0 min 0,0 UV-I 0 W/m 0,0 km/h (0 Bft)
07.04.2013 05:12 0,9 C -2,1 C 80 % 1022,4 hPa 0,0 l/m 0 min 0 min 0,0 UV-I 0 W/m 0,0 km/h (0 Bft)
07.04.2013 05:14 0,8 C -2,1 C 80 % 1022,4 hPa 0,0 l/m 0 min 0 min 0,0 UV-I 0 W/m 0,0 km/h (0 Bft)
07.04.2013 05:16 0,8 C -2,1 C 80 % 1022,4 hPa 0,0 l/m 0 min 0 min 0,0 UV-I 0 W/m 0,0 km/h (0 Bft)
07.04.2013 05:18 0,7 C -2,7 C 81 % 1022,4 hPa 0,0 l/m 0 min 0 min 0,0 UV-I 0 W/m 0,0 km/h (0 Bft)
07.04.2013 05:20 0,7 C -2,7 C 81 % 1022,5 hPa 0,0 l/m 0 min 0 min 0,0 UV-I 0 W/m 0,0 km/h (0 Bft)
07.04.2013 05:22 0,6 C -2,7 C 81 % 1022,4 hPa 0,0 l/m 0 min 0 min 0,0 UV-I 0 W/m 0,0 km/h (0 Bft)
07.04.2013 05:24 0,6 C -2,7 C 81 % 1022,5 hPa 0,0 l/m 0 min 0 min 0,0 UV-I 0 W/m 0,0 km/h (0 Bft)
07.04.2013 05:26 0,5 C -2,7 C 81 % 1022,4 hPa 0,0 l/m 0 min 0 min 0,0 UV-I 0 W/m 0,0 km/h (0 Bft)
07.04.2013 05:28 0,4 C -2,7 C 81 % 1022,5 hPa 0,0 l/m 0 min 0 min 0,0 UV-I 0 W/m 0,0 km/h (0 Bft)
07.04.2013 05:30 0,3 C -2,7 C 81 % 1022,4 hPa 0,0 l/m 0 min 0 min 0,0 UV-I 0 W/m 0,0 km/h (0 Bft)
07.04.2013 05:32 0,3 C -2,7 C 82 % 1022,5 hPa 0,0 l/m 0 min 0 min 0,0 UV-I 0 W/m 0,0 km/h (0 Bft)
07.04.2013 05:34 0,3 C -2,7 C 82 % 1022,4 hPa 0,0 l/m 0 min 0 min 0,0 UV-I 0 W/m 0,0 km/h (0 Bft)
07.04.2013 05:36 0,2 C -2,7 C 82 % 1022,4 hPa 0,0 l/m 0 min 0 min 0,0 UV-I 0 W/m 0,0 km/h (0 Bft)
07.04.2013 05:38 0,2 C -2,7 C 82 % 1022,4 hPa 0,0 l/m 0 min 0 min 0,0 UV-I 0 W/m 0,0 km/h (0 Bft)
07.04.2013 05:40 0,1 C -2,7 C 83 % 1022,5 hPa 0,0 l/m 0 min 0 min 0,0 UV-I 0 W/m 0,0 km/h (0 Bft)
07.04.2013 05:42 0,1 C -2,7 C 83 % 1022,4 hPa 0,0 l/m 0 min 0 min 0,0 UV-I 0 W/m 0,0 km/h (0 Bft)
07.04.2013 05:44 0,0 C -2,7 C 83 % 1022,5 hPa 0,0 l/m 0 min 0 min 0,0 UV-I 0 W/m 0,0 km/h (0 Bft)
07.04.2013 05:46 -0,1 C -2,7 C 83 % 1022,5 hPa 0,0 l/m 0 min 0 min 0,0 UV-I 0 W/m 0,0 km/h (0 Bft)
07.04.2013 05:48 -0,1 C -3,2 C 83 % 1022,5 hPa 0,0 l/m 0 min 0 min 0,0 UV-I 0 W/m 0,0 km/h (0 Bft)
07.04.2013 05:50 -0,2 C -3,2 C 83 % 1022,5 hPa 0,0 l/m 0 min 0 min 0,0 UV-I 0 W/m 0,0 km/h (0 Bft)
07.04.2013 05:52 -0,2 C -3,2 C 83 % 1022,5 hPa 0,0 l/m 0 min 0 min 0,0 UV-I 0 W/m 0,0 km/h (0 Bft)
07.04.2013 05:54 -0,3 C -3,2 C 83 % 1022,5 hPa 0,0 l/m 0 min 0 min 0,0 UV-I 0 W/m 0,0 km/h (0 Bft)
07.04.2013 05:56 -0,3 C -3,2 C 83 % 1022,4 hPa 0,0 l/m 0 min 0 min 0,0 UV-I 0 W/m 0,0 km/h (0 Bft)
07.04.2013 05:58 -0,3 C -3,2 C 84 % 1022,5 hPa 0,0 l/m 0 min 0 min 0,0 UV-I 0 W/m 0,0 km/h (0 Bft)
07.04.2013 06:00 -0,4 C -3,2 C 84 % 1022,4 hPa 0,0 l/m 0 min 0 min 0,0 UV-I 0 W/m 0,0 km/h (0 Bft)
07.04.2013 06:02 -0,4 C -3,2 C 84 % 1022,4 hPa 0,0 l/m 0 min 0 min 0,0 UV-I 0 W/m 0,0 km/h (0 Bft)
07.04.2013 06:06 -0,5 C -3,2 C 84 % 1022,4 hPa 0,0 l/m 0 min 0 min 0,0 UV-I 0 W/m 0,0 km/h (0 Bft)
07.04.2013 06:08 -0,6 C -3,2 C 84 % 1022,4 hPa 0,0 l/m 0 min 0 min 0,0 UV-I 0 W/m 0,0 km/h (0 Bft)
07.04.2013 06:10 -0,6 C -3,2 C 84 % 1022,4 hPa 0,0 l/m 0 min 0 min 0,0 UV-I 0 W/m 0,0 km/h (0 Bft)
07.04.2013 06:12 -0,7 C -3,2 C 84 % 1022,4 hPa 0,0 l/m 0 min 0 min 0,0 UV-I 0 W/m 0,0 km/h (0 Bft)
07.04.2013 06:14 -0,7 C -3,2 C 84 % 1022,4 hPa 0,0 l/m 0 min 0 min 0,0 UV-I 0 W/m 0,0 km/h (0 Bft)
07.04.2013 06:16 -0,7 C -3,2 C 84 % 1022,4 hPa 0,0 l/m 0 min 0 min 0,0 UV-I 0 W/m 0,0 km/h (0 Bft)
07.04.2013 06:18 -0,8 C -3,2 C 84 % 1022,4 hPa 0,0 l/m 0 min 0 min 0,0 UV-I 0 W/m 0,0 km/h (0 Bft)
07.04.2013 06:20 -0,8 C -3,2 C 84 % 1022,3 hPa 0,0 l/m 0 min 0 min 0,0 UV-I 0 W/m 0,0 km/h (0 Bft)
07.04.2013 06:22 -0,8 C -3,2 C 84 % 1022,3 hPa 0,0 l/m 0 min 0 min 0,0 UV-I 0 W/m 0,0 km/h (0 Bft)
07.04.2013 06:24 -0,9 C -3,2 C 84 % 1022,3 hPa 0,0 l/m 0 min 0 min 0,0 UV-I 0 W/m 0,0 km/h (0 Bft)
07.04.2013 06:26 -0,9 C -3,2 C 84 % 1022,3 hPa 0,0 l/m 0 min 0 min 0,0 UV-I 0 W/m 0,0 km/h (0 Bft)
07.04.2013 06:28 -0,9 C -3,2 C 84 % 1022,3 hPa 0,0 l/m 0 min 0 min 0,0 UV-I 0 W/m 0,0 km/h (0 Bft)
07.04.2013 06:30 -1,0 C -3,2 C 84 % 1022,4 hPa 0,0 l/m 0 min 0 min 0,0 UV-I 0 W/m 0,0 km/h (0 Bft)
07.04.2013 06:32 -1,1 C -3,2 C 84 % 1022,4 hPa 0,0 l/m 0 min 0 min 0,0 UV-I 0 W/m 0,0 km/h (0 Bft)
07.04.2013 06:34 -1,1 C -3,2 C 85 % 1022,4 hPa 0,0 l/m 0 min 0 min 0,0 UV-I 0 W/m 0,0 km/h (0 Bft)
07.04.2013 06:36 -1,1 C -3,2 C 85 % 1022,5 hPa 0,0 l/m 0 min 0 min 0,0 UV-I 0 W/m 0,0 km/h (0 Bft)
07.04.2013 06:38 -1,2 C -3,2 C 85 % 1022,5 hPa 0,0 l/m 0 min 0 min 0,0 UV-I 0 W/m 0,0 km/h (0 Bft)
07.04.2013 06:40 -1,2 C -3,8 C 85 % 1022,6 hPa 0,0 l/m 0 min 0 min 0,0 UV-I 0 W/m 0,0 km/h (0 Bft)
07.04.2013 06:42 -1,2 C -3,8 C 85 % 1022,5 hPa 0,0 l/m 0 min 0 min 0,0 UV-I 0 W/m 0,0 km/h (0 Bft)
07.04.2013 06:44 -1,2 C -3,8 C 85 % 1022,6 hPa 0,0 l/m 0 min 0 min 0,0 UV-I 0 W/m 0,0 km/h (0 Bft)
07.04.2013 06:46 -1,3 C -3,8 C 85 % 1022,7 hPa 0,0 l/m 0 min 0 min 0,0 UV-I 0 W/m 0,0 km/h (0 Bft)
07.04.2013 06:48 -1,3 C -3,8 C 85 % 1022,6 hPa 0,0 l/m 0 min 0 min 0,0 UV-I 0 W/m 0,0 km/h (0 Bft)
07.04.2013 06:50 -1,3 C -3,8 C 86 % 1022,6 hPa 0,0 l/m 0 min 0 min 0,0 UV-I 0 W/m 0,0 km/h (0 Bft)
07.04.2013 06:52 -1,3 C -3,8 C 86 % 1022,6 hPa 0,0 l/m 0 min 0 min 0,0 UV-I 0 W/m 0,0 km/h (0 Bft)
07.04.2013 06:54 -1,3 C -3,8 C 86 % 1022,7 hPa 0,0 l/m 0 min 0 min 0,0 UV-I 0 W/m 0,0 km/h (0 Bft)
07.04.2013 06:56 -1,4 C -3,8 C 86 % 1022,7 hPa 0,0 l/m 0 min 0 min 0,0 UV-I 0 W/m 0,0 km/h (0 Bft)
07.04.2013 06:58 -1,4 C -3,8 C 86 % 1022,7 hPa 0,0 l/m 0 min 0 min 0,0 UV-I 0 W/m 0,0 km/h (0 Bft)
07.04.2013 07:00 -1,4 C -3,8 C 86 % 1022,8 hPa 0,0 l/m 0 min 0 min 0,0 UV-I 0 W/m 0,0 km/h (0 Bft)
07.04.2013 07:02 -1,4 C -3,8 C 86 % 1022,8 hPa 0,0 l/m 0 min 0 min 0,0 UV-I 5 W/m 0,0 km/h (0 Bft)
07.04.2013 07:04 -1,5 C -3,8 C 86 % 1022,8 hPa 0,0 l/m 0 min 0 min 0,0 UV-I 5 W/m 0,0 km/h (0 Bft)
07.04.2013 07:06 -1,5 C -3,8 C 86 % 1022,9 hPa 0,0 l/m 0 min 0 min 0,0 UV-I 5 W/m 0,0 km/h (0 Bft)
07.04.2013 07:08 -1,5 C -3,8 C 86 % 1022,9 hPa 0,0 l/m 0 min 0 min 0,0 UV-I 7 W/m 0,0 km/h (0 Bft)
07.04.2013 07:10 -1,5 C -3,8 C 87 % 1022,9 hPa 0,0 l/m 0 min 0 min 0,0 UV-I 7 W/m 0,0 km/h (0 Bft)
07.04.2013 07:12 -1,6 C -3,8 C 87 % 1022,9 hPa 0,0 l/m 0 min 0 min 0,0 UV-I 9 W/m 0,0 km/h (0 Bft)
07.04.2013 07:14 -1,6 C -3,8 C 87 % 1022,9 hPa 0,0 l/m 0 min 0 min 0,0 UV-I 9 W/m 0,0 km/h (0 Bft)
07.04.2013 07:16 -1,6 C -3,8 C 87 % 1022,8 hPa 0,0 l/m 0 min 0 min 0,0 UV-I 11 W/m 0,0 km/h (0 Bft)
07.04.2013 07:18 -1,6 C -3,8 C 87 % 1022,9 hPa 0,0 l/m 0 min 0 min 0,0 UV-I 11 W/m 0,0 km/h (0 Bft)
07.04.2013 07:20 -1,6 C -3,8 C 87 % 1022,9 hPa 0,0 l/m 0 min 0 min 0,0 UV-I 11 W/m 0,0 km/h (0 Bft)
07.04.2013 07:22 -1,6 C -3,2 C 87 % 1022,9 hPa 0,0 l/m 0 min 0 min 0,0 UV-I 12 W/m 0,0 km/h (0 Bft)
07.04.2013 07:24 -1,7 C -3,2 C 87 % 1022,9 hPa 0,0 l/m 0 min 0 min 0,0 UV-I 12 W/m 0,0 km/h (0 Bft)
07.04.2013 07:26 -1,7 C -3,2 C 87 % 1022,9 hPa 0,0 l/m 0 min 0 min 0,0 UV-I 14 W/m 0,0 km/h (0 Bft)
07.04.2013 07:28 -1,7 C -3,2 C 87 % 1022,9 hPa 0,0 l/m 0 min 0 min 0,0 UV-I 14 W/m 0,0 km/h (0 Bft)
07.04.2013 07:30 -1,7 C -3,2 C 87 % 1022,9 hPa 0,0 l/m 0 min 0 min 0,0 UV-I 16 W/m 0,0 km/h (0 Bft)
07.04.2013 07:32 -1,7 C -3,2 C 88 % 1022,9 hPa 0,0 l/m 0 min 0 min 0,0 UV-I 16 W/m 0,0 km/h (0 Bft)
07.04.2013 07:34 -1,7 C -3,2 C 88 % 1022,9 hPa 0,0 l/m 0 min 0 min 0,0 UV-I 18 W/m 0,0 km/h (0 Bft)
07.04.2013 07:36 -1,7 C -3,2 C 88 % 1022,9 hPa 0,0 l/m 0 min 0 min 0,0 UV-I 18 W/m 0,0 km/h (0 Bft)
07.04.2013 07:38 -1,7 C -3,2 C 88 % 1022,9 hPa 0,0 l/m 0 min 0 min 0,0 UV-I 19 W/m 0,0 km/h (0 Bft)
07.04.2013 07:40 -1,7 C -3,2 C 88 % 1022,9 hPa 0,0 l/m 0 min 0 min 0,0 UV-I 19 W/m 0,0 km/h (0 Bft)
07.04.2013 07:42 -1,7 C -3,2 C 88 % 1022,8 hPa 0,0 l/m 0 min 0 min 0,0 UV-I 21 W/m 0,0 km/h (0 Bft)
07.04.2013 07:44 -1,7 C -3,2 C 88 % 1022,8 hPa 0,0 l/m 0 min 0 min 0,0 UV-I 21 W/m 0,0 km/h (0 Bft)
07.04.2013 07:46 -1,7 C -3,2 C 88 % 1022,8 hPa 0,0 l/m 0 min 0 min 0,0 UV-I 21 W/m 0,0 km/h (0 Bft)
07.04.2013 07:48 -1,8 C -3,2 C 89 % 1022,8 hPa 0,0 l/m 0 min 0 min 0,0 UV-I 23 W/m 0,0 km/h (0 Bft)
07.04.2013 07:50 -1,8 C -3,2 C 89 % 1022,8 hPa 0,0 l/m 0 min 0 min 0,0 UV-I 23 W/m 0,0 km/h (0 Bft)
07.04.2013 07:52 -1,8 C -2,7 C 89 % 1022,8 hPa 0,0 l/m 0 min 0 min 0,0 UV-I 25 W/m 0,0 km/h (0 Bft)
07.04.2013 07:54 -1,7 C -2,7 C 89 % 1022,8 hPa 0,0 l/m 0 min 0 min 0,0 UV-I 25 W/m 0,0 km/h (0 Bft)
07.04.2013 07:56 -1,7 C -2,7 C 89 % 1022,8 hPa 0,0 l/m 0 min 0 min 0,0 UV-I 25 W/m 0,0 km/h (0 Bft)
07.04.2013 07:58 -1,7 C -2,1 C 90 % 1022,8 hPa 0,0 l/m 0 min 0 min 0,0 UV-I 26 W/m 0,0 km/h (0 Bft)
07.04.2013 08:00 -1,7 C -2,7 C 90 % 1022,8 hPa 0,0 l/m 0 min 0 min 0,0 UV-I 26 W/m 0,0 km/h (0 Bft)
07.04.2013 08:02 -1,7 C -2,7 C 90 % 1022,9 hPa 0,0 l/m 0 min 0 min 0,0 UV-I 28 W/m 0,0 km/h (0 Bft)
07.04.2013 08:04 -1,6 C -2,7 C 90 % 1022,9 hPa 0,0 l/m 0 min 0 min 0,0 UV-I 28 W/m 0,0 km/h (0 Bft)
07.04.2013 08:06 -1,6 C -2,1 C 90 % 1022,9 hPa 0,0 l/m 0 min 0 min 0,0 UV-I 28 W/m 0,0 km/h (0 Bft)
07.04.2013 08:08 -1,6 C -2,1 C 90 % 1022,9 hPa 0,0 l/m 0 min 0 min 0,0 UV-I 30 W/m 0,0 km/h (0 Bft)
07.04.2013 08:10 -1,6 C -2,1 C 91 % 1022,9 hPa 0,0 l/m 0 min 0 min 0,0 UV-I 30 W/m 0,0 km/h (0 Bft)
07.04.2013 08:12 -1,5 C -2,1 C 91 % 1022,9 hPa 0,0 l/m 0 min 0 min 0,0 UV-I 30 W/m 0,0 km/h (0 Bft)
07.04.2013 08:14 -1,5 C -2,1 C 91 % 1022,9 hPa 0,0 l/m 0 min 0 min 0,0 UV-I 30 W/m 0,0 km/h (0 Bft)
07.04.2013 08:16 -1,4 C -2,1 C 91 % 1022,9 hPa 0,0 l/m 0 min 0 min 0,0 UV-I 32 W/m 0,0 km/h (0 Bft)
07.04.2013 08:18 -1,4 C -2,1 C 91 % 1022,9 hPa 0,0 l/m 0 min 0 min 0,0 UV-I 32 W/m 0,0 km/h (0 Bft)
07.04.2013 08:20 -1,3 C -2,1 C 92 % 1022,9 hPa 0,0 l/m 0 min 0 min 0,0 UV-I 32 W/m 0,0 km/h (0 Bft)
07.04.2013 08:22 -1,3 C -2,1 C 92 % 1022,9 hPa 0,0 l/m 0 min 0 min 0,0 UV-I 33 W/m 0,0 km/h (0 Bft)
07.04.2013 08:24 -1,3 C -2,1 C 92 % 1022,9 hPa 0,0 l/m 0 min 0 min 0,0 UV-I 33 W/m 0,0 km/h (0 Bft)
07.04.2013 08:26 -1,2 C -1,6 C 92 % 1023,0 hPa 0,0 l/m 0 min 0 min 0,0 UV-I 33 W/m 0,0 km/h (0 Bft)
07.04.2013 08:28 -1,2 C -1,6 C 92 % 1022,9 hPa 0,0 l/m 0 min 0 min 0,0 UV-I 33 W/m 0,0 km/h (0 Bft)
07.04.2013 08:30 -1,1 C -1,6 C 92 % 1022,9 hPa 0,0 l/m 0 min 0 min 0,0 UV-I 33 W/m 0,0 km/h (0 Bft)
07.04.2013 08:32 -1,1 C -1,6 C 93 % 1022,9 hPa 0,0 l/m 0 min 0 min 0,0 UV-I 35 W/m 0,0 km/h (0 Bft)
07.04.2013 08:34 -1,1 C -1,6 C 93 % 1022,9 hPa 0,0 l/m 0 min 0 min 0,0 UV-I 35 W/m 0,0 km/h (0 Bft)
07.04.2013 08:36 -1,0 C -1,6 C 93 % 1022,9 hPa 0,0 l/m 0 min 0 min 0,0 UV-I 35 W/m 0,0 km/h (0 Bft)
07.04.2013 08:38 -0,9 C -1,6 C 93 % 1022,8 hPa 0,0 l/m 0 min 0 min 0,0 UV-I 35 W/m 0,0 km/h (0 Bft)
07.04.2013 08:40 -0,9 C -1,0 C 93 % 1022,8 hPa 0,0 l/m 0 min 0 min 0,0 UV-I 35 W/m 0,0 km/h (0 Bft)
07.04.2013 08:42 -0,8 C -1,0 C 93 % 1022,8 hPa 0,0 l/m 0 min 0 min 0,0 UV-I 37 W/m 0,0 km/h (0 Bft)
07.04.2013 08:44 -0,8 C -1,0 C 93 % 1022,9 hPa 0,0 l/m 0 min 0 min 0,0 UV-I 37 W/m 0,0 km/h (0 Bft)
07.04.2013 08:46 -0,7 C -1,0 C 93 % 1022,9 hPa 0,0 l/m 0 min 0 min 0,0 UV-I 37 W/m 0,0 km/h (0 Bft)
07.04.2013 08:48 -0,7 C -1,0 C 93 % 1022,9 hPa 0,0 l/m 0 min 0 min 0,0 UV-I 40 W/m 0,0 km/h (0 Bft)
07.04.2013 08:50 -0,6 C -1,0 C 94 % 1022,8 hPa 0,0 l/m 0 min 0 min 0,0 UV-I 39 W/m 0,0 km/h (0 Bft)
07.04.2013 08:52 -0,6 C -1,0 C 94 % 1022,8 hPa 0,0 l/m 0 min 0 min 0,0 UV-I 40 W/m 0,0 km/h (0 Bft)
07.04.2013 08:54 -0,4 C -0,4 C 94 % 1022,9 hPa 0,0 l/m 0 min 0 min 0,0 UV-I 51 W/m 0,0 km/h (0 Bft)
07.04.2013 08:56 -0,3 C -0,4 C 94 % 1022,9 hPa 0,0 l/m 0 min 0 min 0,0 UV-I 62 W/m 0,0 km/h (0 Bft)
07.04.2013 08:58 -0,3 C -0,4 C 94 % 1022,9 hPa 0,0 l/m 0 min 0 min 0,0 UV-I 74 W/m 0,0 km/h (0 Bft)
07.04.2013 09:00 -0,2 C -0,4 C 94 % 1022,9 hPa 0,0 l/m 0 min 0 min 0,0 UV-I 90 W/m 0,0 km/h (0 Bft)
07.04.2013 09:02 -0,2 C -0,4 C 94 % 1022,9 hPa 0,0 l/m 0 min 0 min 0,0 UV-I 114 W/m 0,0 km/h (0 Bft)
07.04.2013 09:06 0,0 C 0,1 C 94 % 1022,9 hPa 0,0 l/m 0 min 0 min 0,0 UV-I 153 W/m 0,0 km/h (0 Bft)
07.04.2013 09:08 0,1 C 0,1 C 94 % 1022,9 hPa 0,0 l/m 0 min 0 min 0,0 UV-I 183 W/m 0,0 km/h (0 Bft)
07.04.2013 09:10 0,2 C 0,1 C 95 % 1022,9 hPa 0,0 l/m 2 min 0 min 0,0 UV-I 202 W/m 0,0 km/h (0 Bft)
07.04.2013 09:12 0,3 C 0,1 C 95 % 1022,9 hPa 0,0 l/m 2 min 0 min 0,0 UV-I 213 W/m 0,0 km/h (0 Bft)
07.04.2013 09:14 0,5 C 0,7 C 95 % 1022,9 hPa 0,0 l/m 2 min 0 min 0,0 UV-I 244 W/m 0,0 km/h (0 Bft)
07.04.2013 09:16 0,7 C 0,7 C 95 % 1022,9 hPa 0,0 l/m 2 min 0 min 0,0 UV-I 255 W/m 0,0 km/h (0 Bft)
07.04.2013 09:18 0,8 C 1,2 C 95 % 1022,9 hPa 0,0 l/m 2 min 0 min 0,0 UV-I 264 W/m 0,0 km/h (0 Bft)
07.04.2013 09:20 0,9 C 1,2 C 95 % 1022,9 hPa 0,0 l/m 2 min 0 min 0,0 UV-I 272 W/m 0,0 km/h (0 Bft)
07.04.2013 09:22 1,1 C 1,2 C 95 % 1022,8 hPa 0,0 l/m 2 min 0 min 0,0 UV-I 276 W/m 0,0 km/h (0 Bft)
07.04.2013 09:24 1,2 C 1,2 C 95 % 1022,9 hPa 0,0 l/m 2 min 0 min 0,0 UV-I 283 W/m 0,0 km/h (0 Bft)
07.04.2013 09:26 1,3 C 1,8 C 95 % 1022,8 hPa 0,0 l/m 2 min 0 min 0,0 UV-I 290 W/m 0,0 km/h (0 Bft)
07.04.2013 09:28 1,6 C 2,9 C 95 % 1022,8 hPa 0,0 l/m 2 min 0 min 0,0 UV-I 294 W/m 2,6 km/h (1 Bft)
07.04.2013 09:30 1,8 C 4,6 C 95 % 1022,7 hPa 0,0 l/m 2 min 0 min 0,0 UV-I 302 W/m 0,0 km/h (0 Bft)
07.04.2013 09:32 1,9 C 6,2 C 94 % 1022,7 hPa 0,0 l/m 2 min 0 min 0,0 UV-I 308 W/m 0,0 km/h (0 Bft)
07.04.2013 09:34 2,1 C 7,3 C 94 % 1022,7 hPa 0,0 l/m 2 min 0 min 0,0 UV-I 313 W/m 7,7 km/h (2 Bft)
07.04.2013 09:36 2,3 C 6,2 C 93 % 1022,6 hPa 0,0 l/m 2 min 0 min 0,0 UV-I 320 W/m 2,6 km/h (1 Bft)
07.04.2013 09:38 2,5 C 5,7 C 93 % 1022,5 hPa 0,0 l/m 2 min 0 min 0,0 UV-I 325 W/m 2,6 km/h (1 Bft)
07.04.2013 09:40 2,7 C 6,2 C 92 % 1022,5 hPa 0,0 l/m 2 min 0 min 0,0 UV-I 330 W/m 0,0 km/h (0 Bft)
07.04.2013 09:42 2,9 C 5,7 C 91 % 1022,5 hPa 0,0 l/m 2 min 0 min 0,0 UV-I 339 W/m 12,9 km/h (3 Bft)
07.04.2013 09:44 3,1 C 5,7 C 90 % 1022,5 hPa 0,0 l/m 2 min 0 min 0,0 UV-I 343 W/m 0,0 km/h (0 Bft)
07.04.2013 09:46 3,3 C 6,2 C 88 % 1022,5 hPa 0,0 l/m 2 min 0 min 0,0 UV-I 348 W/m 0,0 km/h (0 Bft)
07.04.2013 09:48 3,4 C 5,7 C 87 % 1022,6 hPa 0,0 l/m 2 min 0 min 0,0 UV-I 355 W/m 0,0 km/h (0 Bft)
07.04.2013 09:50 3,6 C 4,6 C 86 % 1022,7 hPa 0,0 l/m 2 min 0 min 0,0 UV-I 360 W/m 7,7 km/h (2 Bft)
07.04.2013 09:52 3,8 C 4,0 C 85 % 1022,7 hPa 0,0 l/m 2 min 0 min 0,0 UV-I 366 W/m 7,7 km/h (2 Bft)
07.04.2013 09:54 4,1 C 4,0 C 83 % 1022,5 hPa 0,0 l/m 2 min 0 min 0,0 UV-I 373 W/m 2,6 km/h (1 Bft)
07.04.2013 09:56 4,3 C 4,0 C 82 % 1022,6 hPa 0,0 l/m 2 min 0 min 0,0 UV-I 380 W/m 2,6 km/h (1 Bft)
07.04.2013 09:58 4,4 C 4,0 C 80 % 1022,6 hPa 0,0 l/m 2 min 0 min 0,0 UV-I 381 W/m 0,0 km/h (0 Bft)
07.04.2013 10:00 4,7 C 4,0 C 80 % 1022,6 hPa 0,0 l/m 2 min 0 min 0,0 UV-I 387 W/m 2,6 km/h (1 Bft)
07.04.2013 10:02 4,8 C 4,0 C 79 % 1022,6 hPa 0,0 l/m 2 min 0 min 0,0 UV-I 392 W/m 0,0 km/h (0 Bft)
07.04.2013 10:04 4,9 C 4,0 C 78 % 1022,5 hPa 0,0 l/m 2 min 0 min 0,0 UV-I 397 W/m 0,0 km/h (0 Bft)
07.04.2013 10:06 5,1 C 4,6 C 78 % 1022,5 hPa 0,0 l/m 2 min 0 min 0,0 UV-I 404 W/m 0,0 km/h (0 Bft)
07.04.2013 10:08 5,2 C 4,6 C 78 % 1022,4 hPa 0,0 l/m 2 min 0 min 0,0 UV-I 408 W/m 0,0 km/h (0 Bft)
07.04.2013 10:10 5,4 C 4,6 C 77 % 1022,4 hPa 0,0 l/m 2 min 0 min 0,5 UV-I 415 W/m 2,6 km/h (1 Bft)
07.04.2013 10:12 5,6 C 4,6 C 76 % 1022,4 hPa 0,0 l/m 2 min 0 min 0,5 UV-I 422 W/m 2,6 km/h (1 Bft)
07.04.2013 10:14 5,7 C 4,6 C 74 % 1022,4 hPa 0,0 l/m 2 min 0 min 0,5 UV-I 425 W/m 0,0 km/h (0 Bft)
07.04.2013 10:16 5,9 C 5,1 C 73 % 1022,3 hPa 0,0 l/m 2 min 0 min 0,6 UV-I 431 W/m 2,6 km/h (1 Bft)
07.04.2013 10:18 6,1 C 5,1 C 72 % 1022,4 hPa 0,0 l/m 2 min 0 min 0,6 UV-I 438 W/m 0,0 km/h (0 Bft)
07.04.2013 10:20 6,2 C 5,1 C 71 % 1022,4 hPa 0,0 l/m 2 min 0 min 0,6 UV-I 443 W/m 2,6 km/h (1 Bft)
07.04.2013 10:22 6,3 C 5,1 C 71 % 1022,2 hPa 0,0 l/m 2 min 0 min 0,6 UV-I 446 W/m 0,0 km/h (0 Bft)
07.04.2013 10:24 6,4 C 5,7 C 70 % 1022,3 hPa 0,0 l/m 2 min 0 min 0,7 UV-I 454 W/m 0,0 km/h (0 Bft)
07.04.2013 10:26 6,5 C 5,7 C 69 % 1022,3 hPa 0,0 l/m 2 min 0 min 0,7 UV-I 457 W/m 0,0 km/h (0 Bft)
07.04.2013 10:28 6,6 C 6,2 C 68 % 1022,3 hPa 0,0 l/m 2 min 0 min 0,7 UV-I 462 W/m 2,6 km/h (1 Bft)
07.04.2013 10:30 6,6 C 6,8 C 67 % 1022,2 hPa 0,0 l/m 2 min 0 min 0,8 UV-I 471 W/m 0,0 km/h (0 Bft)
07.04.2013 10:32 6,7 C 7,9 C 67 % 1022,2 hPa 0,0 l/m 2 min 0 min 0,8 UV-I 473 W/m 0,0 km/h (0 Bft)
07.04.2013 10:34 6,8 C 7,9 C 67 % 1022,1 hPa 0,0 l/m 2 min 0 min 0,8 UV-I 476 W/m 2,6 km/h (1 Bft)
07.04.2013 10:36 6,9 C 7,3 C 66 % 1022,1 hPa 0,0 l/m 2 min 0 min 0,9 UV-I 482 W/m 0,0 km/h (0 Bft)
07.04.2013 10:38 7,1 C 7,9 C 64 % 1022,0 hPa 0,0 l/m 2 min 0 min 0,9 UV-I 487 W/m 2,6 km/h (1 Bft)
07.04.2013 10:40 7,2 C 7,9 C 64 % 1021,9 hPa 0,0 l/m 2 min 0 min 0,9 UV-I 490 W/m 2,6 km/h (1 Bft)
07.04.2013 10:42 7,4 C 8,4 C 64 % 1021,9 hPa 0,0 l/m 2 min 0 min 0,9 UV-I 496 W/m 2,6 km/h (1 Bft)
07.04.2013 10:44 7,5 C 7,9 C 63 % 1021,9 hPa 0,0 l/m 2 min 0 min 1,0 UV-I 501 W/m 2,6 km/h (1 Bft)
07.04.2013 10:46 7,6 C 7,3 C 62 % 1021,8 hPa 0,0 l/m 2 min 0 min 1,0 UV-I 508 W/m 0,0 km/h (0 Bft)
07.04.2013 10:48 7,7 C 7,3 C 62 % 1021,8 hPa 0,0 l/m 2 min 0 min 1,0 UV-I 510 W/m 5,1 km/h (1 Bft)
07.04.2013 10:50 7,8 C 7,3 C 61 % 1021,8 hPa 0,0 l/m 2 min 0 min 1,1 UV-I 513 W/m 2,6 km/h (1 Bft)
07.04.2013 10:52 7,9 C 7,9 C 60 % 1021,8 hPa 0,0 l/m 2 min 0 min 1,1 UV-I 522 W/m 0,0 km/h (0 Bft)
07.04.2013 10:54 7,9 C 7,9 C 59 % 1021,8 hPa 0,0 l/m 2 min 0 min 1,1 UV-I 522 W/m 0,0 km/h (0 Bft)
07.04.2013 10:56 8,0 C 7,9 C 57 % 1021,9 hPa 0,0 l/m 2 min 0 min 1,2 UV-I 531 W/m 0,0 km/h (0 Bft)
07.04.2013 10:58 8,1 C 7,3 C 57 % 1021,8 hPa 0,0 l/m 2 min 0 min 1,2 UV-I 531 W/m 5,1 km/h (1 Bft)
07.04.2013 11:00 8,2 C 7,3 C 57 % 1021,9 hPa 0,0 l/m 2 min 0 min 1,2 UV-I 536 W/m 10,3 km/h (2 Bft)
07.04.2013 11:02 8,3 C 7,3 C 59 % 1021,8 hPa 0,0 l/m 2 min 0 min 1,2 UV-I 541 W/m 7,7 km/h (2 Bft)
07.04.2013 11:04 8,4 C 7,3 C 59 % 1021,9 hPa 0,0 l/m 2 min 0 min 1,3 UV-I 541 W/m 7,7 km/h (2 Bft)
07.04.2013 11:06 8,5 C 7,3 C 59 % 1021,8 hPa 0,0 l/m 2 min 0 min 1,3 UV-I 540 W/m 5,1 km/h (1 Bft)
07.04.2013 11:08 8,6 C 7,3 C 57 % 1021,8 hPa 0,0 l/m 2 min 0 min 1,3 UV-I 547 W/m 0,0 km/h (0 Bft)
07.04.2013 11:10 8,8 C 7,9 C 57 % 1021,8 hPa 0,0 l/m 2 min 0 min 1,3 UV-I 555 W/m 10,3 km/h (2 Bft)
07.04.2013 11:12 8,8 C 7,3 C 56 % 1021,8 hPa 0,0 l/m 2 min 0 min 1,4 UV-I 559 W/m 5,1 km/h (1 Bft)
07.04.2013 11:14 8,9 C 7,9 C 57 % 1021,8 hPa 0,0 l/m 2 min 0 min 1,4 UV-I 564 W/m 0,0 km/h (0 Bft)
07.04.2013 11:16 9,0 C 7,9 C 56 % 1021,8 hPa 0,0 l/m 2 min 0 min 1,4 UV-I 566 W/m 2,6 km/h (1 Bft)
07.04.2013 11:18 9,1 C 8,4 C 55 % 1021,8 hPa 0,0 l/m 2 min 0 min 1,5 UV-I 570 W/m 2,6 km/h (1 Bft)
07.04.2013 11:20 9,1 C 7,3 C 54 % 1021,8 hPa 0,0 l/m 2 min 0 min 1,5 UV-I 577 W/m 2,6 km/h (1 Bft)
07.04.2013 11:22 9,2 C 7,9 C 55 % 1021,8 hPa 0,0 l/m 2 min 0 min 1,5 UV-I 582 W/m 0,0 km/h (0 Bft)
07.04.2013 11:24 9,2 C 8,4 C 54 % 1021,8 hPa 0,0 l/m 2 min 0 min 1,5 UV-I 585 W/m 0,0 km/h (0 Bft)
07.04.2013 11:26 9,3 C 8,4 C 55 % 1021,8 hPa 0,0 l/m 2 min 0 min 1,6 UV-I 587 W/m 10,3 km/h (2 Bft)
07.04.2013 11:28 9,3 C 9,0 C 51 % 1021,7 hPa 0,0 l/m 2 min 0 min 1,6 UV-I 591 W/m 7,7 km/h (2 Bft)
07.04.2013 11:30 9,4 C 9,0 C 49 % 1021,8 hPa 0,0 l/m 2 min 0 min 1,6 UV-I 594 W/m 7,7 km/h (2 Bft)
07.04.2013 11:32 9,5 C 9,0 C 50 % 1021,8 hPa 0,0 l/m 2 min 0 min 1,6 UV-I 598 W/m 10,3 km/h (2 Bft)
07.04.2013 11:34 9,6 C 9,0 C 49 % 1021,8 hPa 0,0 l/m 2 min 0 min 1,7 UV-I 606 W/m 7,7 km/h (2 Bft)
07.04.2013 11:36 9,7 C 9,0 C 50 % 1021,8 hPa 0,0 l/m 2 min 0 min 1,7 UV-I 612 W/m 0,0 km/h (0 Bft)
07.04.2013 11:38 9,7 C 8,4 C 48 % 1021,8 hPa 0,0 l/m 2 min 0 min 1,7 UV-I 615 W/m 2,6 km/h (1 Bft)
07.04.2013 11:40 9,8 C 8,4 C 48 % 1021,7 hPa 0,0 l/m 2 min 0 min 1,8 UV-I 621 W/m 2,6 km/h (1 Bft)
07.04.2013 11:42 9,8 C 9,0 C 49 % 1021,8 hPa 0,0 l/m 2 min 0 min 1,8 UV-I 626 W/m 10,3 km/h (2 Bft)
07.04.2013 11:44 9,9 C 9,6 C 48 % 1021,8 hPa 0,0 l/m 2 min 0 min 1,8 UV-I 629 W/m 15,4 km/h (3 Bft)
07.04.2013 11:46 10,0 C 9,0 C 48 % 1021,9 hPa 0,0 l/m 2 min 0 min 1,9 UV-I 635 W/m 7,7 km/h (2 Bft)
07.04.2013 11:48 10,1 C 9,0 C 48 % 1021,8 hPa 0,0 l/m 2 min 0 min 1,9 UV-I 638 W/m 7,7 km/h (2 Bft)
07.04.2013 11:50 10,1 C 9,6 C 47 % 1021,8 hPa 0,0 l/m 2 min 0 min 1,9 UV-I 638 W/m 7,7 km/h (2 Bft)
07.04.2013 11:52 10,2 C 9,0 C 47 % 1021,8 hPa 0,0 l/m 2 min 0 min 1,9 UV-I 638 W/m 2,6 km/h (1 Bft)
07.04.2013 11:54 10,2 C 8,4 C 45 % 1021,8 hPa 0,0 l/m 2 min 0 min 2,0 UV-I 640 W/m 10,3 km/h (2 Bft)
07.04.2013 11:56 10,1 C 7,9 C 45 % 1021,9 hPa 0,0 l/m 2 min 0 min 2,0 UV-I 640 W/m 10,3 km/h (2 Bft)
07.04.2013 11:58 10,1 C 7,9 C 45 % 1021,9 hPa 0,0 l/m 2 min 0 min 2,0 UV-I 643 W/m 0,0 km/h (0 Bft)
07.04.2013 12:00 10,1 C 8,4 C 45 % 1021,8 hPa 0,0 l/m 2 min 0 min 2,0 UV-I 645 W/m 2,6 km/h (1 Bft)
07.04.2013 12:02 10,1 C 8,4 C 45 % 1021,7 hPa 0,0 l/m 2 min 0 min 2,1 UV-I 647 W/m 2,6 km/h (1 Bft)
07.04.2013 12:06 10,0 C 9,0 C 47 % 1021,7 hPa 0,0 l/m 2 min 0 min 2,1 UV-I 654 W/m 10,3 km/h (2 Bft)
07.04.2013 12:08 10,1 C 9,0 C 46 % 1021,6 hPa 0,0 l/m 2 min 0 min 2,1 UV-I 656 W/m 12,9 km/h (3 Bft)
07.04.2013 12:10 10,1 C 9,0 C 45 % 1021,7 hPa 0,0 l/m 2 min 0 min 2,2 UV-I 659 W/m 0,0 km/h (0 Bft)
07.04.2013 12:12 10,1 C 8,4 C 45 % 1021,6 hPa 0,0 l/m 2 min 0 min 2,2 UV-I 659 W/m 0,0 km/h (0 Bft)
07.04.2013 12:14 10,1 C 9,0 C 46 % 1021,6 hPa 0,0 l/m 2 min 0 min 2,2 UV-I 663 W/m 7,7 km/h (2 Bft)
07.04.2013 12:16 10,1 C 9,0 C 46 % 1021,7 hPa 0,0 l/m 2 min 0 min 2,2 UV-I 664 W/m 7,7 km/h (2 Bft)
07.04.2013 12:18 10,1 C 9,6 C 46 % 1021,6 hPa 0,0 l/m 2 min 0 min 2,2 UV-I 666 W/m 10,3 km/h (2 Bft)
07.04.2013 12:20 10,1 C 9,6 C 46 % 1021,5 hPa 0,0 l/m 2 min 0 min 2,2 UV-I 666 W/m 10,3 km/h (2 Bft)
07.04.2013 12:22 10,1 C 10,1 C 46 % 1021,5 hPa 0,0 l/m 2 min 0 min 2,3 UV-I 671 W/m 2,6 km/h (1 Bft)
07.04.2013 12:24 10,1 C 10,1 C 46 % 1021,5 hPa 0,0 l/m 2 min 0 min 2,3 UV-I 675 W/m 7,7 km/h (2 Bft)
07.04.2013 12:26 10,0 C 11,8 C 45 % 1021,5 hPa 0,0 l/m 2 min 0 min 2,2 UV-I 671 W/m 7,7 km/h (2 Bft)
07.04.2013 12:28 10,0 C 11,8 C 45 % 1021,5 hPa 0,0 l/m 2 min 0 min 2,3 UV-I 675 W/m 12,9 km/h (3 Bft)
07.04.2013 12:30 9,9 C 10,7 C 46 % 1021,5 hPa 0,0 l/m 2 min 0 min 2,3 UV-I 680 W/m 0,0 km/h (0 Bft)
07.04.2013 12:32 9,9 C 10,1 C 46 % 1021,4 hPa 0,0 l/m 2 min 0 min 2,3 UV-I 682 W/m 5,1 km/h (1 Bft)
07.04.2013 12:34 10,0 C 10,7 C 46 % 1021,4 hPa 0,0 l/m 2 min 0 min 2,3 UV-I 680 W/m 10,3 km/h (2 Bft)
07.04.2013 12:36 10,1 C 10,1 C 47 % 1021,4 hPa 0,0 l/m 2 min 0 min 2,3 UV-I 679 W/m 2,6 km/h (1 Bft)
07.04.2013 12:38 10,1 C 9,6 C 45 % 1021,4 hPa 0,0 l/m 2 min 0 min 2,3 UV-I 684 W/m 10,3 km/h (2 Bft)
07.04.2013 12:40 10,0 C 9,6 C 46 % 1021,4 hPa 0,0 l/m 2 min 0 min 2,4 UV-I 687 W/m 2,6 km/h (1 Bft)
07.04.2013 12:42 10,1 C 10,1 C 46 % 1021,4 hPa 0,0 l/m 2 min 0 min 2,4 UV-I 687 W/m 0,0 km/h (0 Bft)
07.04.2013 12:44 10,1 C 10,1 C 47 % 1021,3 hPa 0,0 l/m 2 min 0 min 2,4 UV-I 689 W/m 5,1 km/h (1 Bft)
07.04.2013 12:46 10,1 C 11,8 C 46 % 1021,3 hPa 0,0 l/m 2 min 0 min 2,4 UV-I 689 W/m 15,4 km/h (3 Bft)
07.04.2013 12:48 10,2 C 12,9 C 45 % 1021,3 hPa 0,0 l/m 2 min 0 min 2,4 UV-I 691 W/m 2,6 km/h (1 Bft)
07.04.2013 12:50 10,2 C 11,8 C 43 % 1021,3 hPa 0,0 l/m 2 min 0 min 2,4 UV-I 689 W/m 2,6 km/h (1 Bft)
07.04.2013 12:52 10,2 C 11,8 C 45 % 1021,3 hPa 0,0 l/m 2 min 0 min 2,5 UV-I 700 W/m 12,9 km/h (3 Bft)
07.04.2013 12:54 10,2 C 11,2 C 44 % 1021,3 hPa 0,0 l/m 2 min 0 min 2,5 UV-I 705 W/m 15,4 km/h (3 Bft)
07.04.2013 12:56 10,2 C 11,2 C 45 % 1021,3 hPa 0,0 l/m 2 min 0 min 2,5 UV-I 701 W/m 7,7 km/h (2 Bft)
07.04.2013 12:58 10,2 C 11,2 C 44 % 1021,3 hPa 0,0 l/m 2 min 0 min 2,4 UV-I 696 W/m 15,4 km/h (3 Bft)
07.04.2013 13:00 10,2 C 12,3 C 45 % 1021,2 hPa 0,0 l/m 2 min 0 min 2,4 UV-I 694 W/m 10,3 km/h (2 Bft)
07.04.2013 13:02 10,2 C 13,4 C 44 % 1021,2 hPa 0,0 l/m 2 min 0 min 2,5 UV-I 703 W/m 10,3 km/h (2 Bft)
07.04.2013 13:04 10,2 C 13,4 C 45 % 1021,2 hPa 0,0 l/m 2 min 0 min 2,5 UV-I 707 W/m 7,7 km/h (2 Bft)
07.04.2013 13:06 10,2 C 12,9 C 44 % 1021,2 hPa 0,0 l/m 2 min 0 min 2,5 UV-I 705 W/m 5,1 km/h (1 Bft)
07.04.2013 13:08 10,2 C 13,4 C 45 % 1021,2 hPa 0,0 l/m 2 min 0 min 2,5 UV-I 707 W/m 7,7 km/h (2 Bft)
07.04.2013 13:10 10,3 C 14,0 C 45 % 1021,1 hPa 0,0 l/m 2 min 0 min 2,5 UV-I 703 W/m 7,7 km/h (2 Bft)
07.04.2013 13:12 10,3 C 13,4 C 44 % 1021,1 hPa 0,0 l/m 2 min 0 min 2,5 UV-I 701 W/m 7,7 km/h (2 Bft)
07.04.2013 13:14 10,3 C 12,9 C 44 % 1021,0 hPa 0,0 l/m 2 min 0 min 2,5 UV-I 707 W/m 7,7 km/h (2 Bft)
07.04.2013 13:16 10,3 C 12,9 C 44 % 1021,0 hPa 0,0 l/m 2 min 0 min 2,5 UV-I 705 W/m 7,7 km/h (2 Bft)
07.04.2013 13:18 10,3 C 12,9 C 45 % 1021,0 hPa 0,0 l/m 2 min 0 min 2,5 UV-I 708 W/m 7,7 km/h (2 Bft)
07.04.2013 13:20 10,4 C 12,3 C 44 % 1020,9 hPa 0,0 l/m 2 min 0 min 2,5 UV-I 710 W/m 5,1 km/h (1 Bft)
07.04.2013 13:22 10,4 C 11,2 C 44 % 1021,0 hPa 0,0 l/m 2 min 0 min 2,6 UV-I 712 W/m 2,6 km/h (1 Bft)
07.04.2013 13:24 10,6 C 11,2 C 45 % 1020,9 hPa 0,0 l/m 2 min 0 min 2,6 UV-I 715 W/m 2,6 km/h (1 Bft)
07.04.2013 13:26 10,7 C 10,7 C 45 % 1020,9 hPa 0,0 l/m 2 min 0 min 2,6 UV-I 721 W/m 0,0 km/h (0 Bft)
07.04.2013 13:28 10,8 C 11,2 C 46 % 1020,8 hPa 0,0 l/m 2 min 0 min 2,6 UV-I 715 W/m 2,6 km/h (1 Bft)
07.04.2013 13:30 10,8 C 10,1 C 44 % 1020,8 hPa 0,0 l/m 2 min 0 min 2,6 UV-I 722 W/m 12,9 km/h (3 Bft)
07.04.2013 13:32 10,9 C 10,1 C 46 % 1020,8 hPa 0,0 l/m 2 min 0 min 2,6 UV-I 724 W/m 10,3 km/h (2 Bft)
07.04.2013 13:34 10,9 C 10,7 C 46 % 1020,8 hPa 0,0 l/m 2 min 0 min 2,6 UV-I 722 W/m 15,4 km/h (3 Bft)
07.04.2013 13:36 10,9 C 10,7 C 46 % 1020,8 hPa 0,0 l/m 2 min 0 min 2,6 UV-I 721 W/m 12,9 km/h (3 Bft)
07.04.2013 13:38 10,9 C 10,1 C 46 % 1020,7 hPa 0,0 l/m 2 min 0 min 2,6 UV-I 717 W/m 15,4 km/h (3 Bft)
07.04.2013 13:40 10,9 C 10,1 C 45 % 1020,7 hPa 0,0 l/m 2 min 0 min 2,6 UV-I 715 W/m 5,1 km/h (1 Bft)
07.04.2013 13:42 10,9 C 10,1 C 46 % 1020,6 hPa 0,0 l/m 2 min 0 min 2,6 UV-I 719 W/m 5,1 km/h (1 Bft)
07.04.2013 13:44 10,9 C 10,7 C 46 % 1020,6 hPa 0,0 l/m 2 min 0 min 2,6 UV-I 717 W/m 5,1 km/h (1 Bft)
07.04.2013 13:46 11,1 C 10,7 C 45 % 1020,6 hPa 0,0 l/m 2 min 0 min 2,6 UV-I 724 W/m 10,3 km/h (2 Bft)
07.04.2013 13:48 11,0 C 10,7 C 44 % 1020,5 hPa 0,0 l/m 2 min 0 min 2,6 UV-I 728 W/m 7,7 km/h (2 Bft)
07.04.2013 13:50 11,1 C 10,7 C 44 % 1020,4 hPa 0,0 l/m 2 min 0 min 2,6 UV-I 728 W/m 10,3 km/h (2 Bft)
07.04.2013 13:52 11,1 C 10,7 C 45 % 1020,4 hPa 0,0 l/m 2 min 0 min 2,5 UV-I 715 W/m 5,1 km/h (1 Bft)
07.04.2013 13:54 11,1 C 10,1 C 46 % 1020,4 hPa 0,0 l/m 2 min 0 min 2,5 UV-I 715 W/m 5,1 km/h (1 Bft)
07.04.2013 13:56 11,2 C 10,7 C 44 % 1020,4 hPa 0,0 l/m 2 min 0 min 2,5 UV-I 717 W/m 7,7 km/h (2 Bft)
07.04.2013 13:58 11,2 C 10,1 C 43 % 1020,4 hPa 0,0 l/m 2 min 0 min 2,6 UV-I 722 W/m 7,7 km/h (2 Bft)
07.04.2013 14:00 11,2 C 10,1 C 43 % 1020,3 hPa 0,0 l/m 2 min 0 min 2,6 UV-I 721 W/m 12,9 km/h (3 Bft)
07.04.2013 14:02 11,2 C 9,6 C 42 % 1020,3 hPa 0,0 l/m 2 min 0 min 2,6 UV-I 724 W/m 7,7 km/h (2 Bft)
07.04.2013 14:04 11,2 C 10,1 C 42 % 1020,3 hPa 0,0 l/m 2 min 0 min 2,6 UV-I 724 W/m 0,0 km/h (0 Bft)
07.04.2013 14:06 11,3 C 10,1 C 44 % 1020,3 hPa 0,0 l/m 2 min 0 min 2,6 UV-I 722 W/m 2,6 km/h (1 Bft)
07.04.2013 14:08 11,3 C 10,1 C 42 % 1020,2 hPa 0,0 l/m 2 min 0 min 2,5 UV-I 721 W/m 2,6 km/h (1 Bft)
07.04.2013 14:10 11,3 C 10,7 C 42 % 1020,1 hPa 0,0 l/m 2 min 0 min 2,6 UV-I 721 W/m 10,3 km/h (2 Bft)
07.04.2013 14:12 11,2 C 10,7 C 44 % 1020,2 hPa 0,0 l/m 2 min 0 min 2,6 UV-I 719 W/m 7,7 km/h (2 Bft)
07.04.2013 14:14 11,3 C 10,1 C 44 % 1020,1 hPa 0,0 l/m 2 min 0 min 2,5 UV-I 721 W/m 18,0 km/h (3 Bft)
07.04.2013 14:16 11,2 C 10,1 C 44 % 1020,1 hPa 0,0 l/m 2 min 0 min 2,5 UV-I 715 W/m 10,3 km/h (2 Bft)
07.04.2013 14:18 11,2 C 10,1 C 43 % 1020,1 hPa 0,0 l/m 2 min 0 min 2,4 UV-I 707 W/m 15,4 km/h (3 Bft)
07.04.2013 14:20 11,1 C 10,1 C 43 % 1020,0 hPa 0,0 l/m 2 min 0 min 2,4 UV-I 700 W/m 12,9 km/h (3 Bft)
07.04.2013 14:22 11,1 C 10,1 C 42 % 1020,0 hPa 0,0 l/m 2 min 0 min 2,4 UV-I 700 W/m 15,4 km/h (3 Bft)
07.04.2013 14:24 10,9 C 9,6 C 42 % 1020,0 hPa 0,0 l/m 2 min 0 min 2,3 UV-I 696 W/m 7,7 km/h (2 Bft)
07.04.2013 14:26 10,8 C 9,6 C 43 % 1020,0 hPa 0,0 l/m 2 min 0 min 2,3 UV-I 694 W/m 10,3 km/h (2 Bft)
07.04.2013 14:28 10,8 C 9,6 C 44 % 1019,9 hPa 0,0 l/m 2 min 0 min 2,3 UV-I 696 W/m 0,0 km/h (0 Bft)
07.04.2013 14:30 10,8 C 9,6 C 43 % 1019,9 hPa 0,0 l/m 2 min 0 min 2,3 UV-I 694 W/m 7,7 km/h (2 Bft)
07.04.2013 14:32 10,8 C 9,6 C 44 % 1019,9 hPa 0,0 l/m 2 min 0 min 2,3 UV-I 691 W/m 2,6 km/h (1 Bft)
07.04.2013 14:34 10,9 C 9,6 C 43 % 1019,9 hPa 0,0 l/m 2 min 0 min 2,3 UV-I 687 W/m 5,1 km/h (1 Bft)
07.04.2013 14:36 10,9 C 10,1 C 44 % 1019,9 hPa 0,0 l/m 2 min 0 min 2,3 UV-I 700 W/m 7,7 km/h (2 Bft)
07.04.2013 14:38 11,0 C 10,7 C 45 % 1019,8 hPa 0,0 l/m 2 min 0 min 2,3 UV-I 698 W/m 7,7 km/h (2 Bft)
07.04.2013 14:40 11,2 C 10,1 C 43 % 1019,8 hPa 0,0 l/m 2 min 0 min 2,3 UV-I 698 W/m 18,0 km/h (3 Bft)
07.04.2013 14:42 11,2 C 10,1 C 42 % 1019,8 hPa 0,0 l/m 2 min 0 min 2,3 UV-I 694 W/m 12,9 km/h (3 Bft)
07.04.2013 14:44 11,2 C 10,1 C 43 % 1019,8 hPa 0,0 l/m 2 min 0 min 2,2 UV-I 687 W/m 7,7 km/h (2 Bft)
07.04.2013 14:46 11,1 C 9,6 C 42 % 1019,8 hPa 0,0 l/m 2 min 0 min 2,2 UV-I 668 W/m 15,4 km/h (3 Bft)
07.04.2013 14:48 11,1 C 9,6 C 42 % 1019,7 hPa 0,0 l/m 2 min 0 min 2,1 UV-I 668 W/m 0,0 km/h (0 Bft)
07.04.2013 14:50 11,1 C 9,6 C 44 % 1019,6 hPa 0,0 l/m 2 min 0 min 2,2 UV-I 679 W/m 10,3 km/h (2 Bft)
07.04.2013 14:52 11,1 C 10,1 C 43 % 1019,5 hPa 0,0 l/m 2 min 0 min 2,2 UV-I 689 W/m 5,1 km/h (1 Bft)
07.04.2013 14:54 11,1 C 10,1 C 43 % 1019,5 hPa 0,0 l/m 2 min 0 min 2,2 UV-I 684 W/m 15,4 km/h (3 Bft)
07.04.2013 14:56 11,0 C 10,1 C 42 % 1019,5 hPa 0,0 l/m 2 min 0 min 2,1 UV-I 677 W/m 15,4 km/h (3 Bft)
07.04.2013 14:58 10,9 C 9,6 C 42 % 1019,5 hPa 0,0 l/m 2 min 0 min 2,1 UV-I 677 W/m 12,9 km/h (3 Bft)
07.04.2013 15:00 10,9 C 10,1 C 42 % 1019,5 hPa 0,0 l/m 2 min 0 min 2,0 UV-I 654 W/m 7,7 km/h (2 Bft)
07.04.2013 15:02 10,8 C 9,6 C 43 % 1019,4 hPa 0,0 l/m 2 min 0 min 2,0 UV-I 656 W/m 2,6 km/h (1 Bft)
07.04.2013 15:06 10,8 C 10,1 C 44 % 1019,3 hPa 0,0 l/m 2 min 0 min 2,0 UV-I 652 W/m 7,7 km/h (2 Bft)
07.04.2013 15:08 10,9 C 10,1 C 43 % 1019,2 hPa 0,0 l/m 2 min 0 min 2,0 UV-I 675 W/m 10,3 km/h (2 Bft)
07.04.2013 15:10 10,9 C 10,1 C 43 % 1019,2 hPa 0,0 l/m 2 min 0 min 2,0 UV-I 671 W/m 7,7 km/h (2 Bft)
07.04.2013 15:12 11,0 C 10,7 C 43 % 1019,2 hPa 0,0 l/m 2 min 0 min 2,0 UV-I 673 W/m 10,3 km/h (2 Bft)
07.04.2013 15:14 11,1 C 10,7 C 43 % 1019,0 hPa 0,0 l/m 2 min 0 min 2,0 UV-I 673 W/m 12,9 km/h (3 Bft)
07.04.2013 15:16 11,2 C 10,1 C 42 % 1019,0 hPa 0,0 l/m 2 min 0 min 1,9 UV-I 668 W/m 15,4 km/h (3 Bft)
07.04.2013 15:18 11,1 C 10,1 C 41 % 1019,0 hPa 0,0 l/m 2 min 0 min 1,8 UV-I 584 W/m 15,4 km/h (3 Bft)
07.04.2013 15:20 11,1 C 10,7 C 43 % 1019,0 hPa 0,0 l/m 2 min 0 min 1,8 UV-I 628 W/m 7,7 km/h (2 Bft)
07.04.2013 15:22 11,2 C 10,7 C 43 % 1018,9 hPa 0,0 l/m 2 min 0 min 1,9 UV-I 642 W/m 5,1 km/h (1 Bft)
07.04.2013 15:24 11,2 C 10,7 C 43 % 1018,9 hPa 0,0 l/m 2 min 0 min 1,8 UV-I 647 W/m 10,3 km/h (2 Bft)
07.04.2013 15:26 11,3 C 10,7 C 42 % 1018,8 hPa 0,0 l/m 2 min 0 min 1,8 UV-I 647 W/m 10,3 km/h (2 Bft)
07.04.2013 15:28 11,3 C 10,1 C 41 % 1018,8 hPa 0,0 l/m 2 min 0 min 1,8 UV-I 657 W/m 15,4 km/h (3 Bft)
07.04.2013 15:30 11,2 C 10,1 C 41 % 1018,7 hPa 0,0 l/m 2 min 0 min 1,8 UV-I 622 W/m 7,7 km/h (2 Bft)
07.04.2013 15:32 11,1 C 10,1 C 41 % 1018,8 hPa 0,0 l/m 2 min 0 min 1,8 UV-I 638 W/m 18,0 km/h (3 Bft)
07.04.2013 15:34 11,1 C 10,1 C 41 % 1018,8 hPa 0,0 l/m 2 min 0 min 1,8 UV-I 643 W/m 10,3 km/h (2 Bft)
07.04.2013 15:36 11,0 C 10,1 C 41 % 1018,7 hPa 0,0 l/m 2 min 0 min 1,7 UV-I 647 W/m 10,3 km/h (2 Bft)
07.04.2013 15:38 10,9 C 9,6 C 41 % 1018,7 hPa 0,0 l/m 2 min 0 min 1,6 UV-I 621 W/m 12,9 km/h (3 Bft)
07.04.2013 15:40 10,9 C 9,6 C 41 % 1018,7 hPa 0,0 l/m 2 min 0 min 1,6 UV-I 598 W/m 10,3 km/h (2 Bft)
07.04.2013 15:42 10,9 C 10,1 C 42 % 1018,6 hPa 0,0 l/m 2 min 0 min 1,6 UV-I 592 W/m 10,3 km/h (2 Bft)
07.04.2013 15:44 10,9 C 10,1 C 41 % 1018,6 hPa 0,0 l/m 2 min 0 min 1,6 UV-I 624 W/m 10,3 km/h (2 Bft)
07.04.2013 15:46 10,8 C 10,1 C 42 % 1018,5 hPa 0,0 l/m 2 min 0 min 1,6 UV-I 621 W/m 5,1 km/h (1 Bft)
07.04.2013 15:48 10,9 C 10,7 C 42 % 1018,6 hPa 0,0 l/m 2 min 0 min 1,5 UV-I 617 W/m 7,7 km/h (2 Bft)
07.04.2013 15:50 10,9 C 10,7 C 43 % 1018,5 hPa 0,0 l/m 2 min 0 min 1,5 UV-I 610 W/m 10,3 km/h (2 Bft)
07.04.2013 15:52 11,1 C 10,7 C 42 % 1018,5 hPa 0,0 l/m 2 min 0 min 1,5 UV-I 606 W/m 2,6 km/h (1 Bft)
07.04.2013 15:54 11,1 C 10,7 C 42 % 1018,4 hPa 0,0 l/m 2 min 0 min 1,4 UV-I 603 W/m 2,6 km/h (1 Bft)
07.04.2013 15:56 11,2 C 10,7 C 42 % 1018,3 hPa 0,0 l/m 2 min 0 min 1,4 UV-I 599 W/m 10,3 km/h (2 Bft)
07.04.2013 15:58 11,3 C 10,7 C 41 % 1018,3 hPa 0,0 l/m 2 min 0 min 1,4 UV-I 596 W/m 2,6 km/h (1 Bft)
07.04.2013 16:00 11,4 C 11,2 C 41 % 1018,3 hPa 0,0 l/m 2 min 0 min 1,4 UV-I 601 W/m 15,4 km/h (3 Bft)
07.04.2013 16:02 11,5 C 11,2 C 41 % 1018,3 hPa 0,0 l/m 2 min 0 min 1,4 UV-I 599 W/m 10,3 km/h (2 Bft)
07.04.2013 16:04 11,7 C 11,8 C 42 % 1018,3 hPa 0,0 l/m 2 min 0 min 1,3 UV-I 570 W/m 7,7 km/h (2 Bft)
07.04.2013 16:06 11,9 C 11,8 C 41 % 1018,3 hPa 0,0 l/m 2 min 0 min 1,3 UV-I 566 W/m 10,3 km/h (2 Bft)
07.04.2013 16:08 11,9 C 11,2 C 39 % 1018,3 hPa 0,0 l/m 2 min 0 min 1,3 UV-I 582 W/m 12,9 km/h (3 Bft)
07.04.2013 16:10 11,9 C 10,7 C 39 % 1018,3 hPa 0,0 l/m 2 min 0 min 1,3 UV-I 582 W/m 2,6 km/h (1 Bft)
07.04.2013 16:12 11,9 C 10,7 C 40 % 1018,2 hPa 0,0 l/m 2 min 0 min 1,2 UV-I 547 W/m 12,9 km/h (3 Bft)
07.04.2013 16:14 11,8 C 10,7 C 39 % 1018,3 hPa 0,0 l/m 2 min 0 min 1,2 UV-I 561 W/m 7,7 km/h (2 Bft)
07.04.2013 16:16 11,8 C 11,2 C 40 % 1018,3 hPa 0,0 l/m 2 min 0 min 1,2 UV-I 564 W/m 10,3 km/h (2 Bft)
07.04.2013 16:18 11,8 C 12,3 C 40 % 1018,2 hPa 0,0 l/m 2 min 0 min 1,1 UV-I 554 W/m 12,9 km/h (3 Bft)
07.04.2013 16:20 11,8 C 14,0 C 40 % 1018,2 hPa 0,0 l/m 2 min 0 min 1,1 UV-I 559 W/m 5,1 km/h (1 Bft)
07.04.2013 16:22 11,8 C 14,6 C 40 % 1018,1 hPa 0,0 l/m 2 min 0 min 1,1 UV-I 559 W/m 12,9 km/h (3 Bft)
07.04.2013 16:24 11,8 C 14,6 C 39 % 1018,0 hPa 0,0 l/m 2 min 0 min 1,1 UV-I 538 W/m 15,4 km/h (3 Bft)
07.04.2013 16:26 11,7 C 14,6 C 39 % 1018,0 hPa 0,0 l/m 2 min 0 min 1,1 UV-I 540 W/m 12,9 km/h (3 Bft)
07.04.2013 16:28 11,7 C 15,1 C 39 % 1017,9 hPa 0,0 l/m 2 min 0 min 1,0 UV-I 533 W/m 2,6 km/h (1 Bft)
07.04.2013 16:30 11,7 C 16,2 C 41 % 1017,9 hPa 0,0 l/m 2 min 0 min 1,0 UV-I 543 W/m 10,3 km/h (2 Bft)
07.04.2013 16:32 11,7 C 15,7 C 39 % 1017,9 hPa 0,0 l/m 2 min 0 min 1,0 UV-I 529 W/m 15,4 km/h (3 Bft)
07.04.2013 16:34 11,7 C 15,7 C 40 % 1017,9 hPa 0,0 l/m 2 min 0 min 0,9 UV-I 520 W/m 10,3 km/h (2 Bft)
07.04.2013 16:36 11,8 C 16,2 C 40 % 1017,9 hPa 0,0 l/m 2 min 0 min 0,9 UV-I 533 W/m 7,7 km/h (2 Bft)
07.04.2013 16:38 11,8 C 16,2 C 41 % 1017,9 hPa 0,0 l/m 2 min 0 min 0,9 UV-I 522 W/m 7,7 km/h (2 Bft)
07.04.2013 16:40 11,9 C 15,7 C 40 % 1017,7 hPa 0,0 l/m 2 min 0 min 0,9 UV-I 522 W/m 0,0 km/h (0 Bft)
07.04.2013 16:42 12,0 C 14,6 C 39 % 1017,7 hPa 0,0 l/m 2 min 0 min 0,8 UV-I 517 W/m 0,0 km/h (0 Bft)
07.04.2013 16:44 12,1 C 14,0 C 41 % 1017,7 hPa 0,0 l/m 2 min 0 min 0,8 UV-I 512 W/m 7,7 km/h (2 Bft)
07.04.2013 16:46 12,1 C 14,0 C 42 % 1017,7 hPa 0,0 l/m 2 min 0 min 0,8 UV-I 506 W/m 7,7 km/h (2 Bft)
07.04.2013 16:48 12,1 C 13,4 C 40 % 1017,7 hPa 0,0 l/m 2 min 0 min 0,8 UV-I 501 W/m 5,1 km/h (1 Bft)
07.04.2013 16:50 12,2 C 12,9 C 40 % 1017,7 hPa 0,0 l/m 2 min 0 min 0,7 UV-I 496 W/m 10,3 km/h (2 Bft)
07.04.2013 16:52 12,2 C 12,9 C 40 % 1017,6 hPa 0,0 l/m 2 min 0 min 0,7 UV-I 489 W/m 2,6 km/h (1 Bft)
07.04.2013 16:54 12,2 C 12,3 C 39 % 1017,5 hPa 0,0 l/m 2 min 0 min 0,7 UV-I 487 W/m 0,0 km/h (0 Bft)
07.04.2013 16:56 12,2 C 12,3 C 40 % 1017,4 hPa 0,0 l/m 2 min 0 min 0,6 UV-I 471 W/m 2,6 km/h (1 Bft)
07.04.2013 16:58 12,3 C 11,8 C 40 % 1017,4 hPa 0,0 l/m 2 min 0 min 0,6 UV-I 462 W/m 5,1 km/h (1 Bft)
07.04.2013 17:00 12,3 C 12,3 C 41 % 1017,3 hPa 0,0 l/m 2 min 0 min 0,6 UV-I 459 W/m 5,1 km/h (1 Bft)
07.04.2013 17:02 12,4 C 11,8 C 39 % 1017,4 hPa 0,0 l/m 2 min 0 min 0,6 UV-I 461 W/m 18,0 km/h (3 Bft)
07.04.2013 17:04 12,3 C 11,2 C 38 % 1017,4 hPa 0,0 l/m 2 min 0 min 0,5 UV-I 464 W/m 18,0 km/h (3 Bft)
07.04.2013 17:06 12,1 C 11,2 C 39 % 1017,4 hPa 0,0 l/m 2 min 0 min 0,5 UV-I 457 W/m 15,4 km/h (3 Bft)
07.04.2013 17:08 11,9 C 10,7 C 39 % 1017,3 hPa 0,0 l/m 2 min 0 min 0,5 UV-I 450 W/m 12,9 km/h (3 Bft)
07.04.2013 17:10 11,8 C 10,7 C 39 % 1017,3 hPa 0,0 l/m 2 min 0 min 0,5 UV-I 445 W/m 15,4 km/h (3 Bft)
07.04.2013 17:12 11,6 C 10,1 C 39 % 1017,3 hPa 0,0 l/m 2 min 0 min 0,0 UV-I 439 W/m 12,9 km/h (3 Bft)
07.04.2013 17:14 11,5 C 10,7 C 39 % 1017,2 hPa 0,0 l/m 2 min 0 min 0,0 UV-I 432 W/m 15,4 km/h (3 Bft)
07.04.2013 17:16 11,4 C 10,7 C 40 % 1017,4 hPa 0,0 l/m 2 min 0 min 0,0 UV-I 429 W/m 10,3 km/h (2 Bft)
07.04.2013 17:18 11,4 C 10,7 C 40 % 1017,2 hPa 0,0 l/m 2 min 0 min 0,0 UV-I 425 W/m 10,3 km/h (2 Bft)
07.04.2013 17:20 11,3 C 10,7 C 40 % 1017,2 hPa 0,0 l/m 2 min 0 min 0,0 UV-I 418 W/m 12,9 km/h (3 Bft)
07.04.2013 17:22 11,3 C 10,7 C 40 % 1017,3 hPa 0,0 l/m 2 min 0 min 0,0 UV-I 418 W/m 2,6 km/h (1 Bft)
07.04.2013 17:24 11,3 C 11,2 C 39 % 1017,1 hPa 0,0 l/m 2 min 0 min 0,0 UV-I 411 W/m 10,3 km/h (2 Bft)
07.04.2013 17:26 11,3 C 11,2 C 39 % 1017,0 hPa 0,0 l/m 2 min 0 min 0,0 UV-I 408 W/m 5,1 km/h (1 Bft)
07.04.2013 17:28 11,3 C 12,3 C 42 % 1017,1 hPa 0,0 l/m 2 min 0 min 0,0 UV-I 404 W/m 2,6 km/h (1 Bft)
07.04.2013 17:30 11,3 C 11,8 C 40 % 1017,0 hPa 0,0 l/m 2 min 0 min 0,0 UV-I 399 W/m 7,7 km/h (2 Bft)
07.04.2013 17:32 11,3 C 11,8 C 39 % 1017,0 hPa 0,0 l/m 2 min 0 min 0,0 UV-I 392 W/m 7,7 km/h (2 Bft)
07.04.2013 17:34 11,3 C 11,8 C 40 % 1017,1 hPa 0,0 l/m 2 min 0 min 0,0 UV-I 387 W/m 12,9 km/h (3 Bft)
07.04.2013 17:36 11,3 C 11,8 C 41 % 1017,1 hPa 0,0 l/m 2 min 0 min 0,0 UV-I 381 W/m 10,3 km/h (2 Bft)
07.04.2013 17:38 11,3 C 11,2 C 40 % 1017,1 hPa 0,0 l/m 2 min 0 min 0,0 UV-I 383 W/m 12,9 km/h (3 Bft)
07.04.2013 17:40 11,3 C 10,7 C 39 % 1017,0 hPa 0,0 l/m 2 min 0 min 0,0 UV-I 380 W/m 10,3 km/h (2 Bft)
07.04.2013 17:42 11,3 C 10,7 C 40 % 1016,9 hPa 0,0 l/m 2 min 0 min 0,0 UV-I 373 W/m 10,3 km/h (2 Bft)
07.04.2013 17:44 11,2 C 10,7 C 40 % 1017,0 hPa 0,0 l/m 2 min 0 min 0,0 UV-I 355 W/m 2,6 km/h (1 Bft)
07.04.2013 17:46 11,3 C 11,2 C 40 % 1017,0 hPa 0,0 l/m 2 min 0 min 0,0 UV-I 350 W/m 10,3 km/h (2 Bft)
07.04.2013 17:48 11,2 C 11,2 C 40 % 1016,9 hPa 0,0 l/m 2 min 0 min 0,0 UV-I 350 W/m 10,3 km/h (2 Bft)
07.04.2013 17:50 11,2 C 11,2 C 39 % 1016,9 hPa 0,0 l/m 2 min 0 min 0,0 UV-I 348 W/m 0,0 km/h (0 Bft)
07.04.2013 17:52 11,2 C 10,7 C 40 % 1016,9 hPa 0,0 l/m 2 min 0 min 0,0 UV-I 348 W/m 0,0 km/h (0 Bft)
07.04.2013 17:54 11,3 C 10,7 C 41 % 1016,9 hPa 0,0 l/m 2 min 0 min 0,0 UV-I 341 W/m 2,6 km/h (1 Bft)
07.04.2013 17:56 11,3 C 10,7 C 41 % 1016,8 hPa 0,0 l/m 2 min 0 min 0,0 UV-I 339 W/m 0,0 km/h (0 Bft)
07.04.2013 17:58 11,4 C 10,7 C 40 % 1016,8 hPa 0,0 l/m 2 min 0 min 0,0 UV-I 334 W/m 2,6 km/h (1 Bft)
07.04.2013 18:00 11,5 C 10,7 C 41 % 1016,8 hPa 0,0 l/m 2 min 0 min 0,0 UV-I 329 W/m 2,6 km/h (1 Bft)
07.04.2013 18:02 11,6 C 10,7 C 39 % 1016,8 hPa 0,0 l/m 2 min 0 min 0,0 UV-I 323 W/m 10,3 km/h (2 Bft)
07.04.2013 18:06 11,7 C 10,7 C 40 % 1016,8 hPa 0,0 l/m 2 min 0 min 0,0 UV-I 285 W/m 2,6 km/h (1 Bft)
07.04.2013 18:08 11,7 C 10,1 C 39 % 1016,8 hPa 0,0 l/m 2 min 0 min 0,0 UV-I 258 W/m 10,3 km/h (2 Bft)
07.04.2013 18:10 11,7 C 10,1 C 39 % 1016,7 hPa 0,0 l/m 2 min 0 min 0,0 UV-I 232 W/m 2,6 km/h (1 Bft)
07.04.2013 18:12 11,7 C 10,1 C 39 % 1016,6 hPa 0,0 l/m 2 min 0 min 0,0 UV-I 253 W/m 0,0 km/h (0 Bft)
07.04.2013 18:14 11,7 C 10,1 C 40 % 1016,6 hPa 0,0 l/m 2 min 0 min 0,0 UV-I 267 W/m 10,3 km/h (2 Bft)
07.04.2013 18:16 11,6 C 9,6 C 39 % 1016,5 hPa 0,0 l/m 2 min 0 min 0,0 UV-I 262 W/m 7,7 km/h (2 Bft)
07.04.2013 18:18 11,5 C 9,6 C 39 % 1016,6 hPa 0,0 l/m 2 min 0 min 0,0 UV-I 218 W/m 18,0 km/h (3 Bft)
07.04.2013 18:20 11,4 C 9,6 C 39 % 1016,6 hPa 0,0 l/m 2 min 0 min 0,0 UV-I 241 W/m 10,3 km/h (2 Bft)
07.04.2013 18:22 11,3 C 9,6 C 39 % 1016,5 hPa 0,0 l/m 2 min 0 min 0,0 UV-I 248 W/m 12,9 km/h (3 Bft)
07.04.2013 18:24 11,2 C 9,6 C 39 % 1016,5 hPa 0,0 l/m 2 min 0 min 0,0 UV-I 188 W/m 10,3 km/h (2 Bft)
07.04.2013 18:26 11,1 C 9,6 C 40 % 1016,5 hPa 0,0 l/m 2 min 0 min 0,0 UV-I 237 W/m 12,9 km/h (3 Bft)
07.04.2013 18:28 10,9 C 9,6 C 40 % 1016,5 hPa 0,0 l/m 2 min 0 min 0,0 UV-I 185 W/m 7,7 km/h (2 Bft)
07.04.2013 18:30 10,9 C 9,6 C 40 % 1016,5 hPa 0,0 l/m 2 min 0 min 0,0 UV-I 246 W/m 5,1 km/h (1 Bft)
07.04.2013 18:32 10,9 C 9,6 C 40 % 1016,4 hPa 0,0 l/m 2 min 0 min 0,0 UV-I 209 W/m 10,3 km/h (2 Bft)
07.04.2013 18:34 10,8 C 9,6 C 40 % 1016,5 hPa 0,0 l/m 2 min 0 min 0,0 UV-I 183 W/m 2,6 km/h (1 Bft)
07.04.2013 18:36 10,8 C 9,6 C 40 % 1016,5 hPa 0,0 l/m 2 min 0 min 0,0 UV-I 229 W/m 5,1 km/h (1 Bft)
07.04.2013 18:38 10,8 C 9,6 C 40 % 1016,4 hPa 0,0 l/m 2 min 0 min 0,0 UV-I 207 W/m 5,1 km/h (1 Bft)
07.04.2013 18:40 10,8 C 9,6 C 40 % 1016,4 hPa 0,0 l/m 2 min 0 min 0,0 UV-I 200 W/m 10,3 km/h (2 Bft)
07.04.2013 18:42 10,8 C 9,6 C 40 % 1016,4 hPa 0,0 l/m 2 min 0 min 0,0 UV-I 167 W/m 12,9 km/h (3 Bft)
07.04.2013 18:44 10,8 C 9,6 C 40 % 1016,4 hPa 0,0 l/m 2 min 0 min 0,0 UV-I 186 W/m 10,3 km/h (2 Bft)
07.04.2013 18:46 10,7 C 9,0 C 40 % 1016,4 hPa 0,0 l/m 2 min 0 min 0,0 UV-I 195 W/m 5,1 km/h (1 Bft)
07.04.2013 18:48 10,7 C 9,6 C 41 % 1016,4 hPa 0,0 l/m 2 min 0 min 0,0 UV-I 195 W/m 5,1 km/h (1 Bft)
07.04.2013 18:50 10,6 C 9,0 C 40 % 1016,4 hPa 0,0 l/m 2 min 0 min 0,0 UV-I 186 W/m 5,1 km/h (1 Bft)
07.04.2013 18:52 10,6 C 9,0 C 40 % 1016,4 hPa 0,0 l/m 2 min 0 min 0,0 UV-I 128 W/m 7,7 km/h (2 Bft)
07.04.2013 18:54 10,6 C 9,0 C 41 % 1016,4 hPa 0,0 l/m 0 min 0 min 0,0 UV-I 109 W/m 0,0 km/h (0 Bft)
07.04.2013 18:56 10,6 C 9,0 C 41 % 1016,3 hPa 0,0 l/m 0 min 0 min 0,0 UV-I 65 W/m 2,6 km/h (1 Bft)
07.04.2013 18:58 10,6 C 9,0 C 40 % 1016,2 hPa 0,0 l/m 0 min 0 min 0,0 UV-I 90 W/m 2,6 km/h (1 Bft)
07.04.2013 19:00 10,6 C 9,0 C 41 % 1016,3 hPa 0,0 l/m 2 min 0 min 0,0 UV-I 120 W/m 2,6 km/h (1 Bft)
07.04.2013 19:02 10,6 C 9,0 C 41 % 1016,2 hPa 0,0 l/m 2 min 0 min 0,0 UV-I 116 W/m 2,6 km/h (1 Bft)
07.04.2013 19:04 10,5 C 9,0 C 41 % 1016,2 hPa 0,0 l/m 0 min 0 min 0,0 UV-I 100 W/m 2,6 km/h (1 Bft)
07.04.2013 19:06 10,5 C 9,0 C 41 % 1016,2 hPa 0,0 l/m 2 min 0 min 0,0 UV-I 118 W/m 2,6 km/h (1 Bft)
07.04.2013 19:08 10,5 C 9,0 C 41 % 1016,2 hPa 0,0 l/m 2 min 0 min 0,0 UV-I 114 W/m 7,7 km/h (2 Bft)
07.04.2013 19:10 10,5 C 9,0 C 41 % 1016,2 hPa 0,0 l/m 2 min 0 min 0,0 UV-I 104 W/m 5,1 km/h (1 Bft)
07.04.2013 19:12 10,4 C 8,4 C 41 % 1016,2 hPa 0,0 l/m 2 min 0 min 0,0 UV-I 102 W/m 2,6 km/h (1 Bft)
07.04.2013 19:14 10,4 C 8,4 C 41 % 1016,1 hPa 0,0 l/m 2 min 0 min 0,0 UV-I 88 W/m 2,6 km/h (1 Bft)
07.04.2013 19:16 10,4 C 8,4 C 41 % 1016,1 hPa 0,0 l/m 2 min 0 min 0,0 UV-I 91 W/m 7,7 km/h (2 Bft)
07.04.2013 19:18 10,4 C 8,4 C 41 % 1016,1 hPa 0,0 l/m 2 min 0 min 0,0 UV-I 86 W/m 7,7 km/h (2 Bft)
07.04.2013 19:20 10,3 C 8,4 C 41 % 1016,1 hPa 0,0 l/m 2 min 0 min 0,0 UV-I 84 W/m 7,7 km/h (2 Bft)
07.04.2013 19:22 10,3 C 8,4 C 41 % 1016,1 hPa 0,0 l/m 2 min 0 min 0,0 UV-I 84 W/m 2,6 km/h (1 Bft)
07.04.2013 19:24 10,3 C 8,4 C 41 % 1016,1 hPa 0,0 l/m 2 min 0 min 0,0 UV-I 84 W/m 0,0 km/h (0 Bft)
07.04.2013 19:26 10,2 C 8,4 C 42 % 1016,2 hPa 0,0 l/m 2 min 0 min 0,0 UV-I 76 W/m 2,6 km/h (1 Bft)
07.04.2013 19:28 10,2 C 8,4 C 42 % 1016,1 hPa 0,0 l/m 0 min 0 min 0,0 UV-I 44 W/m 0,0 km/h (0 Bft)
07.04.2013 19:30 10,2 C 8,4 C 42 % 1016,1 hPa 0,0 l/m 0 min 0 min 0,0 UV-I 44 W/m 0,0 km/h (0 Bft)
07.04.2013 19:32 10,2 C 7,9 C 41 % 1016,1 hPa 0,0 l/m 0 min 0 min 0,0 UV-I 33 W/m 2,6 km/h (1 Bft)
07.04.2013 19:34 10,2 C 7,9 C 41 % 1016,2 hPa 0,0 l/m 0 min 0 min 0,0 UV-I 35 W/m 2,6 km/h (1 Bft)
07.04.2013 19:36 10,1 C 7,9 C 41 % 1016,2 hPa 0,0 l/m 0 min 0 min 0,0 UV-I 40 W/m 5,1 km/h (1 Bft)
07.04.2013 19:38 10,1 C 7,9 C 42 % 1016,2 hPa 0,0 l/m 0 min 0 min 0,0 UV-I 33 W/m 7,7 km/h (2 Bft)
07.04.2013 19:40 10,0 C 7,9 C 42 % 1016,1 hPa 0,0 l/m 0 min 0 min 0,0 UV-I 25 W/m 10,3 km/h (2 Bft)
07.04.2013 19:42 9,9 C 7,9 C 42 % 1016,1 hPa 0,0 l/m 0 min 0 min 0,0 UV-I 23 W/m 0,0 km/h (0 Bft)
07.04.2013 19:44 9,9 C 7,3 C 43 % 1016,1 hPa 0,0 l/m 0 min 0 min 0,0 UV-I 23 W/m 0,0 km/h (0 Bft)
07.04.2013 19:46 9,8 C 7,3 C 43 % 1016,0 hPa 0,0 l/m 0 min 0 min 0,0 UV-I 21 W/m 10,3 km/h (2 Bft)
07.04.2013 19:48 9,7 C 7,3 C 42 % 1016,1 hPa 0,0 l/m 0 min 0 min 0,0 UV-I 23 W/m 2,6 km/h (1 Bft)
07.04.2013 19:50 9,7 C 7,3 C 43 % 1016,1 hPa 0,0 l/m 0 min 0 min 0,0 UV-I 21 W/m 2,6 km/h (1 Bft)
07.04.2013 19:52 9,6 C 7,3 C 43 % 1016,1 hPa 0,0 l/m 0 min 0 min 0,0 UV-I 18 W/m 7,7 km/h (2 Bft)
07.04.2013 19:54 9,5 C 7,3 C 43 % 1016,1 hPa 0,0 l/m 0 min 0 min 0,0 UV-I 16 W/m 2,6 km/h (1 Bft)
07.04.2013 19:56 9,4 C 7,3 C 43 % 1016,1 hPa 0,0 l/m 0 min 0 min 0,0 UV-I 14 W/m 0,0 km/h (0 Bft)
07.04.2013 19:58 9,4 C 6,8 C 43 % 1016,0 hPa 0,0 l/m 0 min 0 min 0,0 UV-I 11 W/m 2,6 km/h (1 Bft)
07.04.2013 20:00 9,3 C 6,8 C 43 % 1016,0 hPa 0,0 l/m 0 min 0 min 0,0 UV-I 9 W/m 2,6 km/h (1 Bft)
07.04.2013 20:02 9,3 C 6,8 C 44 % 1016,1 hPa 0,0 l/m 0 min 0 min 0,0 UV-I 9 W/m 0,0 km/h (0 Bft)
07.04.2013 20:04 9,2 C 6,8 C 44 % 1016,0 hPa 0,0 l/m 0 min 0 min 0,0 UV-I 7 W/m 2,6 km/h (1 Bft)
07.04.2013 20:06 9,1 C 6,8 C 44 % 1016,0 hPa 0,0 l/m 0 min 0 min 0,0 UV-I 7 W/m 0,0 km/h (0 Bft)
07.04.2013 20:08 9,1 C 6,8 C 44 % 1016,0 hPa 0,0 l/m 0 min 0 min 0,0 UV-I 7 W/m 0,0 km/h (0 Bft)
07.04.2013 20:10 9,0 C 6,8 C 44 % 1016,0 hPa 0,0 l/m 0 min 0 min 0,0 UV-I 5 W/m 0,0 km/h (0 Bft)
07.04.2013 20:12 8,9 C 6,2 C 45 % 1016,1 hPa 0,0 l/m 0 min 0 min 0,0 UV-I 5 W/m 0,0 km/h (0 Bft)
07.04.2013 20:14 8,9 C 6,2 C 45 % 1016,1 hPa 0,0 l/m 0 min 0 min 0,0 UV-I 0 W/m 2,6 km/h (1 Bft)
07.04.2013 20:16 8,8 C 6,2 C 45 % 1016,1 hPa 0,0 l/m 0 min 0 min 0,0 UV-I 0 W/m 0,0 km/h (0 Bft)
07.04.2013 20:18 8,8 C 6,2 C 45 % 1016,1 hPa 0,0 l/m 0 min 0 min 0,0 UV-I 0 W/m 0,0 km/h (0 Bft)
07.04.2013 20:20 8,7 C 6,2 C 46 % 1016,1 hPa 0,0 l/m 0 min 0 min 0,0 UV-I 0 W/m 0,0 km/h (0 Bft)
07.04.2013 20:22 8,7 C 6,2 C 46 % 1016,0 hPa 0,0 l/m 0 min 0 min 0,0 UV-I 0 W/m 0,0 km/h (0 Bft)
07.04.2013 20:24 8,6 C 5,7 C 46 % 1016,0 hPa 0,0 l/m 0 min 0 min 0,0 UV-I 0 W/m 0,0 km/h (0 Bft)
07.04.2013 20:26 8,5 C 6,2 C 46 % 1016,0 hPa 0,0 l/m 0 min 0 min 0,0 UV-I 0 W/m 0,0 km/h (0 Bft)
07.04.2013 20:28 8,4 C 5,7 C 46 % 1016,1 hPa 0,0 l/m 0 min 0 min 0,0 UV-I 0 W/m 0,0 km/h (0 Bft)
07.04.2013 20:30 8,4 C 5,7 C 47 % 1016,0 hPa 0,0 l/m 0 min 0 min 0,0 UV-I 0 W/m 0,0 km/h (0 Bft)
07.04.2013 20:32 8,3 C 5,7 C 47 % 1016,0 hPa 0,0 l/m 0 min 0 min 0,0 UV-I 0 W/m 0,0 km/h (0 Bft)
07.04.2013 20:34 8,2 C 5,7 C 47 % 1015,9 hPa 0,0 l/m 0 min 0 min 0,0 UV-I 0 W/m 0,0 km/h (0 Bft)
07.04.2013 20:36 8,2 C 5,7 C 47 % 1016,0 hPa 0,0 l/m 0 min 0 min 0,0 UV-I 0 W/m 0,0 km/h (0 Bft)
07.04.2013 20:38 8,1 C 5,7 C 48 % 1016,0 hPa 0,0 l/m 0 min 0 min 0,0 UV-I 0 W/m 0,0 km/h (0 Bft)
07.04.2013 20:40 8,0 C 5,7 C 48 % 1016,1 hPa 0,0 l/m 0 min 0 min 0,0 UV-I 0 W/m 0,0 km/h (0 Bft)
07.04.2013 20:42 7,9 C 5,7 C 48 % 1016,0 hPa 0,0 l/m 0 min 0 min 0,0 UV-I 0 W/m 2,6 km/h (1 Bft)
07.04.2013 20:44 7,9 C 5,7 C 48 % 1015,9 hPa 0,0 l/m 0 min 0 min 0,0 UV-I 0 W/m 0,0 km/h (0 Bft)
07.04.2013 20:46 7,8 C 5,7 C 49 % 1016,0 hPa 0,0 l/m 0 min 0 min 0,0 UV-I 0 W/m 2,6 km/h (1 Bft)
07.04.2013 20:48 7,8 C 5,7 C 49 % 1015,9 hPa 0,0 l/m 0 min 0 min 0,0 UV-I 0 W/m 0,0 km/h (0 Bft)
07.04.2013 20:50 7,7 C 5,7 C 49 % 1016,0 hPa 0,0 l/m 0 min 0 min 0,0 UV-I 0 W/m 0,0 km/h (0 Bft)
07.04.2013 20:52 7,6 C 5,7 C 50 % 1016,0 hPa 0,0 l/m 0 min 0 min 0,0 UV-I 0 W/m 2,6 km/h (1 Bft)
07.04.2013 20:54 7,6 C 5,7 C 50 % 1016,1 hPa 0,0 l/m 0 min 0 min 0,0 UV-I 0 W/m 0,0 km/h (0 Bft)
07.04.2013 20:56 7,5 C 5,7 C 50 % 1016,1 hPa 0,0 l/m 0 min 0 min 0,0 UV-I 0 W/m 0,0 km/h (0 Bft)
07.04.2013 20:58 7,4 C 5,7 C 50 % 1016,0 hPa 0,0 l/m 0 min 0 min 0,0 UV-I 0 W/m 0,0 km/h (0 Bft)
07.04.2013 21:00 7,4 C 5,7 C 51 % 1016,0 hPa 0,0 l/m 0 min 0 min 0,0 UV-I 0 W/m 2,6 km/h (1 Bft)
07.04.2013 21:02 7,3 C 5,7 C 51 % 1016,0 hPa 0,0 l/m 0 min 0 min 0,0 UV-I 0 W/m 0,0 km/h (0 Bft)
07.04.2013 21:06 7,2 C 5,1 C 51 % 1016,0 hPa 0,0 l/m 0 min 0 min 0,0 UV-I 0 W/m 2,6 km/h (1 Bft)
07.04.2013 21:08 7,2 C 5,1 C 52 % 1016,0 hPa 0,0 l/m 0 min 0 min 0,0 UV-I 0 W/m 0,0 km/h (0 Bft)
07.04.2013 21:10 7,2 C 5,1 C 52 % 1016,0 hPa 0,0 l/m 0 min 0 min 0,0 UV-I 0 W/m 0,0 km/h (0 Bft)
07.04.2013 21:12 7,2 C 5,1 C 52 % 1016,2 hPa 0,0 l/m 0 min 0 min 0,0 UV-I 0 W/m 0,0 km/h (0 Bft)
07.04.2013 21:14 7,1 C 5,1 C 52 % 1016,1 hPa 0,0 l/m 0 min 0 min 0,0 UV-I 0 W/m 0,0 km/h (0 Bft)
07.04.2013 21:16 7,1 C 5,1 C 52 % 1016,0 hPa 0,0 l/m 0 min 0 min 0,0 UV-I 0 W/m 0,0 km/h (0 Bft)
07.04.2013 21:18 7,0 C 5,1 C 52 % 1016,0 hPa 0,0 l/m 0 min 0 min 0,0 UV-I 0 W/m 2,6 km/h (1 Bft)
07.04.2013 21:20 6,9 C 5,1 C 53 % 1016,1 hPa 0,0 l/m 0 min 0 min 0,0 UV-I 0 W/m 0,0 km/h (0 Bft)
07.04.2013 21:22 6,9 C 5,1 C 53 % 1016,0 hPa 0,0 l/m 0 min 0 min 0,0 UV-I 0 W/m 0,0 km/h (0 Bft)
07.04.2013 21:24 6,8 C 5,1 C 53 % 1016,0 hPa 0,0 l/m 0 min 0 min 0,0 UV-I 0 W/m 0,0 km/h (0 Bft)
07.04.2013 21:26 6,8 C 5,1 C 53 % 1015,9 hPa 0,0 l/m 0 min 0 min 0,0 UV-I 0 W/m 0,0 km/h (0 Bft)
07.04.2013 21:28 6,7 C 4,6 C 53 % 1015,9 hPa 0,0 l/m 0 min 0 min 0,0 UV-I 0 W/m 0,0 km/h (0 Bft)
07.04.2013 21:30 6,7 C 4,6 C 53 % 1016,0 hPa 0,0 l/m 0 min 0 min 0,0 UV-I 0 W/m 2,6 km/h (1 Bft)
07.04.2013 21:32 6,6 C 4,6 C 53 % 1015,9 hPa 0,0 l/m 0 min 0 min 0,0 UV-I 0 W/m 0,0 km/h (0 Bft)
07.04.2013 21:34 6,6 C 4,6 C 54 % 1015,9 hPa 0,0 l/m 0 min 0 min 0,0 UV-I 0 W/m 0,0 km/h (0 Bft)
07.04.2013 21:36 6,5 C 4,6 C 54 % 1015,8 hPa 0,0 l/m 0 min 0 min 0,0 UV-I 0 W/m 2,6 km/h (1 Bft)
07.04.2013 21:38 6,4 C 4,0 C 54 % 1015,9 hPa 0,0 l/m 0 min 0 min 0,0 UV-I 0 W/m 0,0 km/h (0 Bft)
07.04.2013 21:40 6,4 C 4,0 C 54 % 1015,9 hPa 0,0 l/m 0 min 0 min 0,0 UV-I 0 W/m 0,0 km/h (0 Bft)
07.04.2013 21:42 6,3 C 4,0 C 54 % 1015,8 hPa 0,0 l/m 0 min 0 min 0,0 UV-I 0 W/m 0,0 km/h (0 Bft)
07.04.2013 21:44 6,2 C 4,0 C 54 % 1015,8 hPa 0,0 l/m 0 min 0 min 0,0 UV-I 0 W/m 0,0 km/h (0 Bft)
07.04.2013 21:46 6,2 C 4,0 C 54 % 1015,7 hPa 0,0 l/m 0 min 0 min 0,0 UV-I 0 W/m 2,6 km/h (1 Bft)
07.04.2013 21:48 6,1 C 4,0 C 54 % 1015,7 hPa 0,0 l/m 0 min 0 min 0,0 UV-I 0 W/m 0,0 km/h (0 Bft)
07.04.2013 21:50 6,1 C 4,0 C 54 % 1015,7 hPa 0,0 l/m 0 min 0 min 0,0 UV-I 0 W/m 0,0 km/h (0 Bft)
07.04.2013 21:52 6,1 C 4,0 C 54 % 1015,7 hPa 0,0 l/m 0 min 0 min 0,0 UV-I 0 W/m 0,0 km/h (0 Bft)
07.04.2013 21:54 6,0 C 4,0 C 55 % 1015,7 hPa 0,0 l/m 0 min 0 min 0,0 UV-I 0 W/m 0,0 km/h (0 Bft)
07.04.2013 21:56 6,0 C 4,0 C 55 % 1015,7 hPa 0,0 l/m 0 min 0 min 0,0 UV-I 0 W/m 0,0 km/h (0 Bft)
07.04.2013 21:58 5,9 C 4,0 C 55 % 1015,7 hPa 0,0 l/m 0 min 0 min 0,0 UV-I 0 W/m 2,6 km/h (1 Bft)
07.04.2013 22:00 5,9 C 4,0 C 55 % 1015,7 hPa 0,0 l/m 0 min 0 min 0,0 UV-I 0 W/m 0,0 km/h (0 Bft)
07.04.2013 22:02 5,9 C 3,4 C 55 % 1015,6 hPa 0,0 l/m 0 min 0 min 0,0 UV-I 0 W/m 0,0 km/h (0 Bft)
07.04.2013 22:04 5,8 C 3,4 C 55 % 1015,6 hPa 0,0 l/m 0 min 0 min 0,0 UV-I 0 W/m 0,0 km/h (0 Bft)
07.04.2013 22:06 5,8 C 3,4 C 55 % 1015,6 hPa 0,0 l/m 0 min 0 min 0,0 UV-I 0 W/m 0,0 km/h (0 Bft)
07.04.2013 22:08 5,8 C 3,4 C 55 % 1015,6 hPa 0,0 l/m 0 min 0 min 0,0 UV-I 0 W/m 0,0 km/h (0 Bft)
07.04.2013 22:10 5,7 C 3,4 C 55 % 1015,6 hPa 0,0 l/m 0 min 0 min 0,0 UV-I 0 W/m 0,0 km/h (0 Bft)
07.04.2013 22:12 5,7 C 3,4 C 55 % 1015,6 hPa 0,0 l/m 0 min 0 min 0,0 UV-I 0 W/m 2,6 km/h (1 Bft)
07.04.2013 22:14 5,7 C 3,4 C 55 % 1015,6 hPa 0,0 l/m 0 min 0 min 0,0 UV-I 0 W/m 0,0 km/h (0 Bft)
07.04.2013 22:16 5,7 C 3,4 C 55 % 1015,6 hPa 0,0 l/m 0 min 0 min 0,0 UV-I 0 W/m 0,0 km/h (0 Bft)
07.04.2013 22:18 5,6 C 3,4 C 55 % 1015,5 hPa 0,0 l/m 0 min 0 min 0,0 UV-I 0 W/m 0,0 km/h (0 Bft)
07.04.2013 22:20 5,6 C 3,4 C 55 % 1015,5 hPa 0,0 l/m 0 min 0 min 0,0 UV-I 0 W/m 0,0 km/h (0 Bft)
07.04.2013 22:22 5,6 C 3,4 C 55 % 1015,5 hPa 0,0 l/m 0 min 0 min 0,0 UV-I 0 W/m 0,0 km/h (0 Bft)
07.04.2013 22:24 5,5 C 3,4 C 55 % 1015,5 hPa 0,0 l/m 0 min 0 min 0,0 UV-I 0 W/m 0,0 km/h (0 Bft)
07.04.2013 22:26 5,4 C 3,4 C 55 % 1015,5 hPa 0,0 l/m 0 min 0 min 0,0 UV-I 0 W/m 2,6 km/h (1 Bft)
07.04.2013 22:28 5,4 C 3,4 C 55 % 1015,4 hPa 0,0 l/m 0 min 0 min 0,0 UV-I 0 W/m 0,0 km/h (0 Bft)
07.04.2013 22:30 5,4 C 3,4 C 55 % 1015,4 hPa 0,0 l/m 0 min 0 min 0,0 UV-I 0 W/m 0,0 km/h (0 Bft)
07.04.2013 22:32 5,4 C 3,4 C 55 % 1015,4 hPa 0,0 l/m 0 min 0 min 0,0 UV-I 0 W/m 0,0 km/h (0 Bft)
07.04.2013 22:34 5,3 C 3,4 C 56 % 1015,4 hPa 0,0 l/m 0 min 0 min 0,0 UV-I 0 W/m 0,0 km/h (0 Bft)
07.04.2013 22:36 5,3 C 3,4 C 56 % 1015,3 hPa 0,0 l/m 0 min 0 min 0,0 UV-I 0 W/m 0,0 km/h (0 Bft)
07.04.2013 22:38 5,3 C 3,4 C 56 % 1015,3 hPa 0,0 l/m 0 min 0 min 0,0 UV-I 0 W/m 2,6 km/h (1 Bft)
07.04.2013 22:40 5,2 C 3,4 C 56 % 1015,3 hPa 0,0 l/m 0 min 0 min 0,0 UV-I 0 W/m 2,6 km/h (1 Bft)
07.04.2013 22:42 5,2 C 3,4 C 56 % 1015,2 hPa 0,0 l/m 0 min 0 min 0,0 UV-I 0 W/m 2,6 km/h (1 Bft)
07.04.2013 22:44 5,2 C 3,4 C 56 % 1015,2 hPa 0,0 l/m 0 min 0 min 0,0 UV-I 0 W/m 2,6 km/h (1 Bft)
07.04.2013 22:46 5,2 C 3,4 C 56 % 1015,2 hPa 0,0 l/m 0 min 0 min 0,0 UV-I 0 W/m 0,0 km/h (0 Bft)
07.04.2013 22:48 5,1 C 3,4 C 56 % 1015,2 hPa 0,0 l/m 0 min 0 min 0,0 UV-I 0 W/m 0,0 km/h (0 Bft)
07.04.2013 22:50 5,1 C 3,4 C 56 % 1015,2 hPa 0,0 l/m 0 min 0 min 0,0 UV-I 0 W/m 0,0 km/h (0 Bft)
07.04.2013 22:52 5,1 C 3,4 C 57 % 1015,1 hPa 0,0 l/m 0 min 0 min 0,0 UV-I 0 W/m 0,0 km/h (0 Bft)
07.04.2013 22:54 5,1 C 3,4 C 56 % 1015,1 hPa 0,0 l/m 0 min 0 min 0,0 UV-I 0 W/m 0,0 km/h (0 Bft)
07.04.2013 22:56 5,1 C 2,9 C 57 % 1015,1 hPa 0,0 l/m 0 min 0 min 0,0 UV-I 0 W/m 0,0 km/h (0 Bft)
07.04.2013 22:58 5,0 C 2,9 C 57 % 1015,1 hPa 0,0 l/m 0 min 0 min 0,0 UV-I 0 W/m 2,6 km/h (1 Bft)
07.04.2013 23:00 4,9 C 2,9 C 57 % 1015,1 hPa 0,0 l/m 0 min 0 min 0,0 UV-I 0 W/m 0,0 km/h (0 Bft)
07.04.2013 23:02 4,9 C 2,9 C 57 % 1015,0 hPa 0,0 l/m 0 min 0 min 0,0 UV-I 0 W/m 0,0 km/h (0 Bft)
07.04.2013 23:04 4,9 C 2,9 C 57 % 1015,0 hPa 0,0 l/m 0 min 0 min 0,0 UV-I 0 W/m 0,0 km/h (0 Bft)
07.04.2013 23:06 4,8 C 2,9 C 57 % 1014,9 hPa 0,0 l/m 0 min 0 min 0,0 UV-I 0 W/m 0,0 km/h (0 Bft)
07.04.2013 23:08 4,8 C 2,3 C 57 % 1014,9 hPa 0,0 l/m 0 min 0 min 0,0 UV-I 0 W/m 0,0 km/h (0 Bft)
07.04.2013 23:10 4,8 C 2,3 C 57 % 1014,9 hPa 0,0 l/m 0 min 0 min 0,0 UV-I 0 W/m 0,0 km/h (0 Bft)
07.04.2013 23:12 4,8 C 2,3 C 58 % 1014,8 hPa 0,0 l/m 0 min 0 min 0,0 UV-I 0 W/m 0,0 km/h (0 Bft)
07.04.2013 23:14 4,7 C 1,8 C 58 % 1014,8 hPa 0,0 l/m 0 min 0 min 0,0 UV-I 0 W/m 0,0 km/h (0 Bft)
07.04.2013 23:16 4,7 C 1,8 C 58 % 1014,7 hPa 0,0 l/m 0 min 0 min 0,0 UV-I 0 W/m 0,0 km/h (0 Bft)
07.04.2013 23:18 4,7 C 1,8 C 58 % 1014,7 hPa 0,0 l/m 0 min 0 min 0,0 UV-I 0 W/m 0,0 km/h (0 Bft)
07.04.2013 23:20 4,7 C 1,8 C 58 % 1014,6 hPa 0,0 l/m 0 min 0 min 0,0 UV-I 0 W/m 0,0 km/h (0 Bft)
07.04.2013 23:22 4,6 C 1,8 C 58 % 1014,6 hPa 0,0 l/m 0 min 0 min 0,0 UV-I 0 W/m 0,0 km/h (0 Bft)
07.04.2013 23:24 4,6 C 1,8 C 58 % 1014,5 hPa 0,0 l/m 0 min 0 min 0,0 UV-I 0 W/m 0,0 km/h (0 Bft)
07.04.2013 23:26 4,5 C 1,2 C 59 % 1014,5 hPa 0,0 l/m 0 min 0 min 0,0 UV-I 0 W/m 0,0 km/h (0 Bft)
07.04.2013 23:28 4,5 C 1,2 C 59 % 1014,5 hPa 0,0 l/m 0 min 0 min 0,0 UV-I 0 W/m 0,0 km/h (0 Bft)
07.04.2013 23:30 4,4 C 1,2 C 59 % 1014,5 hPa 0,0 l/m 0 min 0 min 0,0 UV-I 0 W/m 0,0 km/h (0 Bft)
07.04.2013 23:32 4,4 C 1,2 C 59 % 1014,4 hPa 0,0 l/m 0 min 0 min 0,0 UV-I 0 W/m 0,0 km/h (0 Bft)
07.04.2013 23:34 4,3 C 1,2 C 59 % 1014,4 hPa 0,0 l/m 0 min 0 min 0,0 UV-I 0 W/m 0,0 km/h (0 Bft)
07.04.2013 23:36 4,3 C 1,2 C 60 % 1014,4 hPa 0,0 l/m 0 min 0 min 0,0 UV-I 0 W/m 0,0 km/h (0 Bft)
07.04.2013 23:38 4,3 C 1,2 C 60 % 1014,4 hPa 0,0 l/m 0 min 0 min 0,0 UV-I 0 W/m 0,0 km/h (0 Bft)
07.04.2013 23:40 4,2 C 1,2 C 60 % 1014,4 hPa 0,0 l/m 0 min 0 min 0,0 UV-I 0 W/m 0,0 km/h (0 Bft)
07.04.2013 23:42 4,2 C 1,2 C 60 % 1014,4 hPa 0,0 l/m 0 min 0 min 0,0 UV-I 0 W/m 0,0 km/h (0 Bft)
07.04.2013 23:44 4,1 C 1,8 C 60 % 1014,3 hPa 0,0 l/m 0 min 0 min 0,0 UV-I 0 W/m 0,0 km/h (0 Bft)
07.04.2013 23:46 4,1 C 1,8 C 60 % 1014,3 hPa 0,0 l/m 0 min 0 min 0,0 UV-I 0 W/m 2,6 km/h (1 Bft)
07.04.2013 23:48 4,1 C 2,3 C 60 % 1014,2 hPa 0,0 l/m 0 min 0 min 0,0 UV-I 0 W/m 0,0 km/h (0 Bft)
07.04.2013 23:50 4,1 C 2,3 C 60 % 1014,2 hPa 0,0 l/m 0 min 0 min 0,0 UV-I 0 W/m 0,0 km/h (0 Bft)
07.04.2013 23:52 4,1 C 2,3 C 60 % 1014,3 hPa 0,0 l/m 0 min 0 min 0,0 UV-I 0 W/m 0,0 km/h (0 Bft)
07.04.2013 23:54 4,1 C 2,3 C 60 % 1014,2 hPa 0,0 l/m 0 min 0 min 0,0 UV-I 0 W/m 2,6 km/h (1 Bft)
07.04.2013 23:56 4,1 C 2,3 C 60 % 1014,2 hPa 0,0 l/m 0 min 0 min 0,0 UV-I 0 W/m 0,0 km/h (0 Bft)
07.04.2013 23:58 4,1 C 2,3 C 60 % 1014,2 hPa 0,0 l/m 0 min 0 min 0,0 UV-I 0 W/m 0,0 km/h (0 Bft)
_ Min-Zeit 07:46 06:40 17:04 23:48 - - - - - 00:00
Minimum _ -1,8 C -3,8 C 38 % 1014,2 hPa - - - - - 0,0 km/h (0 Bft)
_ Max-Zeit 17:02 16:30 09:10 08:26 00:00 09:10 00:00 13:22 13:48 14:14
Maximum _ 12,4 C 16,2 C 95 % 1023,0 hPa 0,0 l/m 2 min 0 min 2,6 UV-I 728 W/m 18,0 km/h
N-NW (3 Bft)
Durchschnitt _ 6,1 C 4,9 C 61 % 1020,1 hPa #0,0 l/m #10:04 h #0 min. 1,8 UV-I 403 W/m 3,7 km/h (1 Bft)
© 2013 W. Hausmann